<- Previous Day | Today | Next Day ->

All Data for 17 September 2020

 

Time A - D Temp A - D Dew Point A - D Humidity A - D Pressure A - D Wind A - D Wind Dir Gust A - D Rain Rate A - D Rain Total
00:00 15.9 13.6 86 1024.8 2.2 N 3.1 0.0 0.0
00:01 15.9 13.4 85 1024.9 3.8 NE 3.8 0.0 0.0
00:02 15.8 13.3 85 1024.7 2.2 ENE 3.8 0.0 0.0
00:03 15.8 13.3 85 1024.7 2.2 NE 3.8 0.0 0.0
00:04 15.8 13.3 85 1024.9 2.2 NNW 3.8 0.0 0.0
00:05 15.8 13.3 85 1024.8 2.2 NE 3.8 0.0 0.0
00:06 15.8 13.3 85 1024.8 2.2 NE 3.8 0.0 0.0
00:07 15.8 13.3 85 1024.7 2.2 NE 3.8 0.0 0.0
00:08 15.8 13.3 85 1025.0 2.2 NE 3.8 0.0 0.0
00:09 15.8 13.3 85 1024.8 2.2 NE 3.8 0.0 0.0
00:11 15.8 13.3 85 1024.9 2.2 NE 2.2 0.0 0.0
00:12 15.8 13.3 85 1025.0 2.2 E 2.2 0.0 0.0
00:13 15.8 13.3 85 1025.0 2.2 E 2.2 0.0 0.0
00:14 15.8 13.3 85 1024.9 2.2 NNW 2.2 0.0 0.0
00:15 15.8 13.3 85 1025.0 2.2 NE 2.2 0.0 0.0
00:16 15.8 13.3 85 1025.1 2.2 NE 2.2 0.0 0.0
00:17 15.8 13.3 85 1024.7 2.2 NE 2.2 0.0 0.0
00:18 15.8 13.3 85 1024.8 2.2 NE 2.2 0.0 0.0
00:19 15.8 13.3 85 1024.8 2.2 NE 2.2 0.0 0.0
00:20 15.8 13.3 85 1024.9 2.2 E 2.2 0.0 0.0
00:21 15.7 13.2 85 1025.0 2.2 NE 2.2 0.0 0.0
00:22 15.7 13.2 85 1024.9 2.2 NE 2.2 0.0 0.0
00:23 15.7 13.2 85 1024.8 2.2 E 2.2 0.0 0.0
00:25 15.7 13.2 85 1024.9 2.2 NNW 2.2 0.0 0.0
00:26 15.7 13.2 85 1025.1 2.2 NNW 2.2 0.0 0.0
00:27 15.7 13.2 85 1024.7 2.2 NE 2.2 0.0 0.0
00:28 15.7 13.0 84 1024.8 2.2 NNW 2.2 0.0 0.0
00:29 15.7 13.0 84 1024.8 2.2 NE 2.2 0.0 0.0
00:30 15.7 13.0 84 1025.0 2.2 E 2.2 0.0 0.0
00:31 15.6 12.9 84 1024.9 2.2 N 2.2 0.0 0.0
00:32 15.7 13.0 84 1025.0 2.2 NNW 2.2 0.0 0.0
00:33 15.6 12.9 84 1025.0 2.2 NE 2.2 0.0 0.0
00:34 15.6 12.9 84 1024.9 2.2 NE 2.2 0.0 0.0
00:35 15.6 12.9 84 1025.2 2.2 NE 2.2 0.0 0.0
00:36 15.6 12.9 84 1024.9 2.2 N 2.2 0.0 0.0
00:37 15.6 12.9 84 1024.9 2.2 N 2.2 0.0 0.0
00:39 15.5 12.8 84 1024.7 2.2 NNW 2.2 0.0 0.0
00:40 15.5 12.8 84 1025.0 2.2 E 2.2 0.0 0.0
00:41 15.5 12.8 84 1025.0 2.2 E 2.2 0.0 0.0
00:42 15.5 12.8 84 1025.0 2.2 E 2.2 0.0 0.0
00:43 15.5 12.8 84 1025.1 1.6 N 2.2 0.0 0.0
00:44 15.5 12.8 84 1025.0 2.2 NE 2.2 0.0 0.0
00:45 15.5 12.8 84 1025.0 2.2 NE 2.2 0.0 0.0
00:46 15.5 12.8 84 1025.0 3.1 NNW 3.1 0.0 0.0
00:47 15.5 12.8 84 1025.0 2.2 NE 3.1 0.0 0.0
00:48 15.5 12.8 84 1024.9 2.2 NNW 3.1 0.0 0.0
00:49 15.5 12.8 84 1025.2 2.2 NE 3.1 0.0 0.0
00:50 15.5 12.8 84 1025.0 2.2 NE 3.1 0.0 0.0
00:51 15.4 12.7 84 1025.0 3.1 NE 3.1 0.0 0.0
00:53 15.4 12.7 84 1025.2 3.1 NNE 3.1 0.0 0.0
00:54 15.4 12.7 84 1025.1 3.1 NE 3.1 0.0 0.0
00:55 15.4 12.7 84 1025.1 3.1 NE 3.1 0.0 0.0
00:56 15.4 12.5 83 1025.1 2.2 NNW 3.1 0.0 0.0
00:57 15.4 12.5 83 1025.0 3.1 NE 3.1 0.0 0.0
00:58 15.3 12.4 83 1025.1 3.1 NNW 3.1 0.0 0.0
00:59 15.3 12.4 83 1025.0 3.1 NE 3.1 0.0 0.0
01:00 15.3 12.4 83 1025.1 3.1 NNW 3.1 0.0 0.0
01:01 15.3 12.4 83 1024.9 3.1 NNW 3.1 0.0 0.0
01:02 15.3 12.4 83 1025.2 3.1 NNW 3.1 0.0 0.0
01:03 15.3 12.4 83 1024.9 3.1 NNW 3.1 0.0 0.0
01:04 15.3 12.4 83 1025.0 3.1 NNW 3.1 0.0 0.0
01:05 15.3 12.4 83 1025.1 3.1 NNW 3.1 0.0 0.0
01:06 15.2 12.3 83 1025.0 3.1 NE 3.1 0.0 0.0
01:08 15.2 12.3 83 1024.9 3.1 NNW 3.1 0.0 0.0
01:09 15.2 12.3 83 1025.1 3.1 NNW 3.1 0.0 0.0
01:10 15.1 12.2 83 1025.0 3.1 N 3.1 0.0 0.0
01:11 15.1 12.2 83 1025.1 3.1 NNW 3.1 0.0 0.0
01:12 15.1 12.2 83 1025.0 2.2 NE 3.1 0.0 0.0
01:13 15.1 12.2 83 1025.0 2.2 NNW 3.1 0.0 0.0
01:14 15.1 12.2 83 1025.0 2.2 NE 3.1 0.0 0.0
01:15 15.1 12.2 83 1025.0 3.1 N 3.1 0.0 0.0
01:16 15.1 12.2 83 1025.0 3.1 NE 3.1 0.0 0.0
01:17 15.1 12.2 83 1025.0 3.1 N 3.1 0.0 0.0
01:18 15.1 12.2 83 1024.9 3.1 NE 3.1 0.0 0.0
01:19 15.1 12.2 83 1025.0 3.1 N 3.8 0.0 0.0
01:20 15.1 12.2 83 1025.0 3.1 NE 3.8 0.0 0.0
01:22 15.1 12.2 83 1024.8 2.2 NE 3.8 0.0 0.0
01:23 15.1 12.2 83 1025.0 1.6 NE 3.8 0.0 0.0
01:24 15.1 12.2 83 1025.0 1.6 NE 3.8 0.0 0.0
01:25 15.1 12.2 83 1024.8 2.2 NE 3.8 0.0 0.0
01:26 15.1 12.2 83 1024.9 2.2 NE 3.8 0.0 0.0
01:27 15.1 12.2 83 1024.9 2.2 N 3.8 0.0 0.0
01:28 15.1 12.2 83 1024.7 2.2 NNW 3.8 0.0 0.0
01:29 15.1 12.2 83 1024.7 1.6 NNW 3.8 0.0 0.0
01:30 15.1 12.2 83 1024.9 0.7 NW 3.1 0.0 0.0
01:31 15.1 12.2 83 1024.7 1.6 NNW 3.1 0.0 0.0
01:32 15.1 12.2 83 1024.8 1.6 NNW 2.2 0.0 0.0
01:33 15.1 12.2 83 1024.7 0.7 NE 2.2 0.0 0.0
01:34 15.1 12.2 83 1024.6 2.2 NE 2.2 0.0 0.0
01:36 15.2 12.3 83 1024.8 1.6 N 3.8 0.0 0.0
01:37 15.2 12.3 83 1024.7 3.8 NE 3.8 0.0 0.0
01:38 15.2 12.3 83 1024.8 3.8 NE 3.8 0.0 0.0
01:39 15.2 12.3 83 1024.9 3.1 NE 3.8 0.0 0.0
01:40 15.2 12.3 83 1024.9 3.1 E 3.8 0.0 0.0
01:41 15.3 12.4 83 1024.6 3.8 NE 3.8 0.0 0.0
01:42 15.3 12.4 83 1024.7 3.8 NE 3.8 0.0 0.0
01:43 15.3 12.4 83 1024.9 3.8 NE 3.8 0.0 0.0
01:44 15.4 12.5 83 1024.6 2.2 NE 3.8 0.0 0.0
01:45 15.4 12.5 83 1024.8 2.2 N 3.8 0.0 0.0
01:46 15.4 12.5 83 1024.7 3.1 NE 3.8 0.0 0.0
01:47 15.5 12.6 83 1024.8 3.8 NE 4.5 0.0 0.0
01:48 15.5 12.6 83 1024.8 3.8 NE 4.5 0.0 0.0
01:50 15.5 12.6 83 1024.8 1.6 N 4.5 0.0 0.0
01:51 15.5 12.6 83 1024.8 1.6 E 4.5 0.0 0.0
01:52 15.5 12.6 83 1024.8 1.6 E 4.5 0.0 0.0
01:53 15.5 12.6 83 1024.8 1.6 NNW 4.5 0.0 0.0
01:54 15.6 12.7 83 1024.7 0.7 N 4.5 0.0 0.0
01:55 15.6 12.7 83 1025.0 0.7 N 4.5 0.0 0.0
01:56 15.6 12.7 83 1024.9 2.2 ENE 4.5 0.0 0.0
01:57 15.6 12.7 83 1024.9 2.2 N 4.5 0.0 0.0
01:58 15.6 12.7 83 1024.7 0.7 NE 3.8 0.0 0.0
01:59 15.6 12.7 83 1024.7 3.1 S 3.1 0.0 0.0
02:00 15.6 12.7 83 1024.7 2.2 N 3.1 0.0 0.0
02:01 15.6 12.7 83 1024.7 0.7 N 3.1 0.0 0.0
02:02 15.6 12.7 83 1024.8 0.7 N 3.1 0.0 0.0
02:04 15.6 12.7 83 1024.6 1.6 NNW 5.4 0.0 0.0
02:05 15.6 12.5 82 1024.7 1.6 E 5.4 0.0 0.0
02:06 15.6 12.5 82 1024.6 3.1 E 5.4 0.0 0.0
02:07 15.6 12.5 82 1024.8 3.1 NNW 5.4 0.0 0.0
02:08 15.6 12.5 82 1024.8 3.8 NE 5.4 0.0 0.0
02:09 15.6 12.5 82 1024.7 3.8 NNW 5.4 0.0 0.0
02:10 15.7 12.6 82 1024.7 3.1 NNW 5.4 0.0 0.0
02:11 15.7 12.6 82 1024.6 3.1 NE 5.4 0.0 0.0
02:12 15.7 12.6 82 1024.7 3.1 NE 5.4 0.0 0.0
02:13 15.7 12.6 82 1024.6 3.1 E 5.4 0.0 0.0
02:14 15.6 12.5 82 1024.6 3.8 NE 3.8 0.0 0.0
02:15 15.6 12.5 82 1024.8 3.1 NE 3.8 0.0 0.0
02:16 15.6 12.5 82 1024.7 5.4 E 5.4 0.0 0.0
02:18 15.6 12.5 82 1024.7 3.8 NE 5.4 0.0 0.0
02:19 15.5 12.4 82 1024.7 6.0 E 6.0 0.0 0.0
02:20 15.5 12.4 82 1024.7 6.0 E 6.0 0.0 0.0
02:21 15.6 12.5 82 1024.6 6.0 NNW 6.0 0.0 0.0
02:22 15.6 12.5 82 1024.7 6.0 NE 6.0 0.0 0.0
02:23 15.6 12.5 82 1024.5 6.0 E 6.0 0.0 0.0
02:24 15.7 12.6 82 1024.7 5.4 NE 6.0 0.0 0.0
02:25 15.7 12.6 82 1024.7 3.8 E 6.0 0.0 0.0
02:26 15.7 12.6 82 1024.6 6.9 E 6.9 0.0 0.0
02:27 15.7 12.6 82 1024.7 6.9 E 6.9 0.0 0.0
02:28 15.8 12.7 82 1024.7 5.4 NE 6.9 0.0 0.0
02:29 15.8 12.7 82 1024.7 3.8 NNW 6.9 0.0 0.0
02:30 15.8 12.7 82 1024.7 3.1 NW 6.9 0.0 0.0
02:32 15.9 12.8 82 1024.6 4.5 E 6.9 0.0 0.0
02:33 15.9 12.8 82 1024.7 6.0 E 6.9 0.0 0.0
02:34 15.9 12.8 82 1024.6 5.4 NE 6.9 0.0 0.0
02:35 15.9 12.8 82 1024.7 9.2 E 9.2 0.0 0.0
02:36 15.9 12.8 82 1024.5 9.2 SE 9.2 0.0 0.0
02:37 15.9 12.8 82 1024.7 9.2 SE 9.2 0.0 0.0
02:38 15.9 12.8 82 1024.5 5.4 NNW 9.2 0.0 0.0
02:39 15.9 12.8 82 1024.5 6.9 E 9.2 0.0 0.0
02:40 16.0 12.9 82 1024.4 5.4 E 9.2 0.0 0.0
02:41 16.0 12.9 82 1024.5 6.0 W 9.2 0.0 0.0
02:42 16.0 13.1 83 1024.8 6.9 NNW 9.2 0.0 0.0
02:43 16.0 13.1 83 1024.5 4.5 NE 9.2 0.0 0.0
02:44 16.0 13.1 83 1024.5 5.4 SW 9.2 0.0 0.0
02:46 16.0 13.1 83 1024.5 8.3 S 9.2 0.0 0.0
02:47 16.0 13.1 83 1024.4 3.8 E 8.3 0.0 0.0
02:48 16.0 13.1 83 1024.4 3.8 E 8.3 0.0 0.0
02:49 16.0 13.1 83 1024.6 3.1 W 8.3 0.0 0.0
02:50 16.0 13.1 83 1024.6 6.0 NE 8.3 0.0 0.0
02:51 16.0 13.1 83 1024.4 4.5 NE 8.3 0.0 0.0
02:52 16.0 12.9 82 1024.4 5.4 SE 8.3 0.0 0.0
02:53 16.1 13.0 82 1024.6 3.1 NNW 8.3 0.0 0.0
02:54 16.1 13.0 82 1024.4 2.2 N 8.3 0.0 0.0
02:55 16.1 13.0 82 1024.5 4.5 E 8.3 0.0 0.0
02:56 16.0 12.9 82 1024.5 3.8 NE 8.3 0.0 0.0
02:57 16.0 12.9 82 1024.4 4.5 NE 7.6 0.0 0.0
02:58 16.0 12.9 82 1024.4 4.5 ENE 7.6 0.0 0.0
03:00 16.0 12.9 82 1024.4 3.1 N 5.4 0.0 0.0
03:01 16.0 12.9 82 1024.4 3.1 N 5.4 0.0 0.0
03:02 16.0 12.9 82 1024.7 3.1 N 4.5 0.0 0.0
03:03 16.0 12.9 82 1024.4 3.1 N 4.5 0.0 0.0
03:04 16.0 12.9 82 1024.3 3.1 N 4.5 0.0 0.0
03:05 16.0 12.9 82 1024.1 3.1 N 4.5 0.0 0.0
03:06 16.0 12.9 82 1024.4 3.8 NE 4.5 0.0 0.0
03:07 16.0 12.9 82 1024.4 3.1 NE 4.5 0.0 0.0
03:08 16.0 12.9 82 1024.1 3.1 E 4.5 0.0 0.0
03:09 16.0 12.9 82 1024.4 3.1 E 3.8 0.0 0.0
03:10 16.0 12.9 82 1024.2 1.6 NE 3.8 0.0 0.0
03:11 16.0 12.9 82 1024.3 2.2 N 3.8 0.0 0.0
03:12 16.0 12.9 82 1024.2 2.2 E 3.8 0.0 0.0
03:14 15.9 12.8 82 1024.0 1.6 NNW 3.8 0.0 0.0
03:15 15.9 12.8 82 1024.3 3.1 NE 3.8 0.0 0.0
03:16 15.9 12.8 82 1024.3 3.1 NE 3.8 0.0 0.0
03:17 15.9 12.8 82 1024.2 3.1 NE 3.1 0.0 0.0
03:18 15.9 12.8 82 1024.3 5.4 E 5.4 0.0 0.0
03:19 15.9 12.8 82 1024.5 5.4 NE 5.4 0.0 0.0
03:20 15.9 12.8 82 1024.2 2.2 E 5.4 0.0 0.0
03:21 15.9 12.8 82 1024.3 2.2 SW 5.4 0.0 0.0
03:22 15.9 12.8 82 1024.4 8.3 NNW 8.3 0.0 0.0
03:23 15.9 12.8 82 1024.3 8.3 SE 8.3 0.0 0.0
03:24 15.9 12.8 82 1024.3 3.8 NE 8.3 0.0 0.0
03:25 15.9 12.8 82 1024.2 3.1 E 8.3 0.0 0.0
03:26 15.8 12.7 82 1024.2 5.4 E 8.3 0.0 0.0
03:28 15.8 12.7 82 1024.3 1.6 NNW 8.3 0.0 0.0
03:29 15.8 12.7 82 1024.4 3.1 ENE 8.3 0.0 0.0
03:30 15.8 12.7 82 1024.2 1.6 E 8.3 0.0 0.0
03:31 15.8 12.7 82 1024.4 6.9 E 8.3 0.0 0.0
03:32 15.8 12.7 82 1024.2 6.9 NE 8.3 0.0 0.0
03:33 15.8 12.7 82 1024.2 4.5 NE 8.3 0.0 0.0
03:34 15.8 12.7 82 1024.3 2.2 E 6.9 0.0 0.0
03:35 15.8 12.7 82 1024.2 2.2 N 6.9 0.0 0.0
03:36 15.8 12.7 82 1024.2 0.7 E 6.9 0.0 0.0
03:37 15.8 12.7 82 1024.2 3.1 E 6.9 0.0 0.0
03:38 15.8 12.7 82 1024.2 2.2 NE 6.9 0.0 0.0
03:39 15.8 12.7 82 1024.5 3.8 NE 6.9 0.0 0.0
03:40 15.8 12.7 82 1024.3 6.0 ENE 6.9 0.0 0.0
03:42 15.8 12.7 82 1024.2 4.5 NE 6.0 0.0 0.0
03:43 15.8 12.7 82 1024.2 5.4 S 6.0 0.0 0.0
03:44 15.8 12.7 82 1024.2 5.4 S 6.0 0.0 0.0
03:45 15.8 12.7 82 1024.1 1.6 E 6.0 0.0 0.0
03:46 15.8 12.7 82 1024.4 10.7 ENE 10.7 0.0 0.0
03:47 15.8 12.7 82 1024.2 10.7 NE 10.7 0.0 0.0
03:48 15.9 12.8 82 1024.2 4.5 E 10.7 0.0 0.0
03:49 15.9 12.8 82 1024.1 6.9 NE 10.7 0.0 0.0
03:50 15.9 12.8 82 1024.2 5.4 E 10.7 0.0 0.0
03:51 15.9 12.8 82 1024.2 5.4 E 10.7 0.0 0.0
03:52 15.9 12.8 82 1024.1 8.3 S 10.7 0.0 0.0
03:53 15.9 12.8 82 1024.4 6.0 NE 10.7 0.0 0.0
03:54 15.9 12.8 82 1024.2 4.5 N 10.7 0.0 0.0
03:56 15.9 12.8 82 1024.2 6.0 NE 10.7 0.0 0.0
03:57 15.9 12.8 82 1024.3 6.0 S 8.3 0.0 0.0
03:58 16.0 12.9 82 1024.2 5.4 NNW 8.3 0.0 0.0
03:59 16.0 12.9 82 1024.2 5.4 NNW 8.3 0.0 0.0
04:00 16.0 12.9 82 1024.2 5.4 E 8.3 0.0 0.0
04:01 16.0 12.9 82 1024.3 5.4 E 8.3 0.0 0.0
04:02 16.0 12.9 82 1024.2 4.5 E 8.3 0.0 0.0
04:03 16.0 12.9 82 1024.2 5.4 NE 6.0 0.0 0.0
04:04 16.0 12.9 82 1024.2 7.6 E 7.6 0.0 0.0
04:05 16.0 12.9 82 1024.2 7.6 SE 7.6 0.0 0.0
04:06 16.0 12.9 82 1024.3 3.8 E 7.6 0.0 0.0
04:07 16.0 12.9 82 1024.3 7.6 E 7.6 0.0 0.0
04:08 16.0 12.9 82 1024.2 5.4 N 7.6 0.0 0.0
04:10 16.0 12.9 82 1024.3 6.0 E 7.6 0.0 0.0
04:11 16.0 12.9 82 1024.3 9.8 N 9.8 0.0 0.0
04:12 16.0 12.9 82 1024.2 8.3 NNW 9.8 0.0 0.0
04:13 16.0 12.9 82 1024.2 8.3 NNW 9.8 0.0 0.0
04:14 16.0 12.9 82 1024.3 13.0 NNE 13.0 0.0 0.0
04:15 16.0 12.9 82 1024.4 8.3 E 13.0 0.0 0.0
04:16 16.0 12.9 82 1024.4 8.3 NE 13.0 0.0 0.0
04:17 16.0 12.9 82 1024.3 8.3 E 13.0 0.0 0.0
04:18 16.0 12.9 82 1023.9 9.2 E 13.0 0.0 0.0
04:19 16.0 12.9 82 1024.3 9.2 E 13.0 0.0 0.0
04:20 16.0 12.9 82 1024.2 6.9 E 13.0 0.0 0.0
04:21 16.0 13.1 83 1024.2 11.4 N 13.0 0.0 0.0
04:22 16.0 13.1 83 1024.2 10.7 N 13.0 0.0 0.0
04:23 16.0 13.1 83 1024.2 12.1 E 13.0 0.0 0.0
04:25 16.0 13.1 83 1024.3 9.2 N 12.1 0.0 0.0
04:26 16.0 13.1 83 1024.3 14.5 E 14.5 0.0 0.0
04:27 16.0 13.1 83 1024.4 14.5 E 14.5 0.0 0.0
04:28 16.0 13.1 83 1024.2 14.5 E 14.5 0.0 0.0
04:29 16.1 13.2 83 1024.2 6.9 E 14.5 0.0 0.0
04:30 16.1 13.2 83 1024.1 6.9 E 14.5 0.0 0.0
04:31 16.1 13.2 83 1024.2 8.3 E 14.5 0.0 0.0
04:32 16.1 13.2 83 1024.1 13.6 SW 14.5 0.0 0.0
04:33 16.1 13.2 83 1024.1 13.6 E 14.5 0.0 0.0
04:34 16.1 13.2 83 1024.2 9.2 W 14.5 0.0 0.0
04:35 16.1 13.2 83 1024.2 15.9 N 15.9 0.0 0.0
04:36 16.1 13.2 83 1024.1 12.1 NE 15.9 0.0 0.0
04:37 16.1 13.2 83 1023.9 7.6 E 15.9 0.0 0.0
04:39 16.1 13.2 83 1023.9 7.6 W 15.9 0.0 0.0
04:40 16.1 13.2 83 1024.0 14.5 SE 15.9 0.0 0.0
04:41 16.1 13.2 83 1024.0 14.5 SE 15.9 0.0 0.0
04:42 16.1 13.2 83 1024.0 13.6 NNE 15.9 0.0 0.0
04:43 16.1 13.2 83 1024.0 9.2 NE 15.9 0.0 0.0
04:44 16.1 13.2 83 1024.1 9.2 NE 15.9 0.0 0.0
04:45 16.0 13.1 83 1024.0 9.2 E 15.9 0.0 0.0
04:46 16.0 12.9 82 1023.9 7.6 NE 14.5 0.0 0.0
04:47 16.0 12.9 82 1023.8 13.0 NE 14.5 0.0 0.0
04:48 16.0 12.9 82 1024.1 9.2 S 14.5 0.0 0.0
04:49 16.0 12.9 82 1023.9 12.1 NE 14.5 0.0 0.0
04:50 16.0 12.9 82 1023.9 12.1 E 14.5 0.0 0.0
04:51 16.0 12.9 82 1023.9 13.6 NE 14.5 0.0 0.0
04:53 16.0 12.9 82 1023.8 11.4 W 13.6 0.0 0.0
04:54 16.0 12.9 82 1023.9 11.4 W 13.6 0.0 0.0
04:55 16.0 12.9 82 1024.0 13.0 NE 13.6 0.0 0.0
04:56 16.0 12.9 82 1024.0 11.4 SW 13.6 0.0 0.0
04:57 16.0 12.9 82 1024.1 9.8 N 13.6 0.0 0.0
04:58 16.0 12.9 82 1023.9 11.4 SE 13.6 0.0 0.0
04:59 16.0 12.9 82 1023.9 11.4 SE 13.6 0.0 0.0
05:00 16.0 12.9 82 1023.9 12.1 N 13.6 0.0 0.0
05:01 16.0 12.9 82 1024.2 12.1 N 13.6 0.0 0.0
05:02 16.0 12.9 82 1023.8 12.1 N 13.0 0.0 0.0
05:03 16.0 12.9 82 1024.0 12.1 N 13.0 0.0 0.0
05:04 16.0 12.9 82 1023.9 12.1 N 13.0 0.0 0.0
05:05 16.0 12.9 82 1023.9 12.1 N 12.1 0.0 0.0
05:07 16.0 12.9 82 1023.9 6.0 SE 17.4 0.0 0.0
05:08 16.0 12.9 82 1023.9 12.1 N 17.4 0.0 0.0
05:09 16.0 12.9 82 1023.9 12.1 N 17.4 0.0 0.0
05:10 16.0 12.9 82 1023.9 15.2 E 17.4 0.0 0.0
05:11 16.0 12.9 82 1023.9 10.7 E 17.4 0.0 0.0
05:12 16.0 12.9 82 1023.9 11.4 E 17.4 0.0 0.0
05:13 16.0 12.9 82 1023.8 9.8 SE 17.4 0.0 0.0
05:14 16.0 12.9 82 1024.3 17.4 S 17.4 0.0 0.0
05:15 16.0 12.9 82 1023.7 15.9 S 17.4 0.0 0.0
05:16 16.0 12.9 82 1024.0 12.1 SE 17.4 0.0 0.0
05:17 16.0 12.9 82 1024.0 15.2 N 17.4 0.0 0.0
05:18 16.0 12.9 82 1024.0 10.7 S 17.4 0.0 0.0
05:19 16.0 12.9 82 1024.1 12.1 N 17.4 0.0 0.0
05:21 16.0 12.9 82 1023.9 12.1 S 17.4 0.0 0.0
05:22 16.0 12.9 82 1023.9 13.0 E 17.4 0.0 0.0
05:23 16.0 12.9 82 1024.0 13.0 NE 17.4 0.0 0.0
05:24 16.0 12.7 81 1023.9 12.1 NE 17.4 0.0 0.0
05:25 16.0 12.7 81 1023.9 12.1 ESE 15.9 0.0 0.0
05:26 16.0 12.7 81 1023.8 9.2 E 15.2 0.0 0.0
05:27 16.0 12.7 81 1023.7 11.4 WNW 15.2 0.0 0.0
05:28 16.0 12.7 81 1023.8 11.4 NE 13.0 0.0 0.0
05:29 16.0 12.7 81 1023.7 17.4 N 17.4 0.0 0.0
05:30 15.9 12.7 81 1023.8 8.3 NE 17.4 0.0 0.0
05:31 15.9 12.7 81 1024.0 12.1 NE 17.4 0.0 0.0
05:32 15.9 12.7 81 1023.8 6.9 NE 17.4 0.0 0.0
05:33 15.9 12.7 81 1023.7 15.2 E 17.4 0.0 0.0
05:35 15.9 12.7 81 1023.9 9.2 NE 17.4 0.0 0.0
05:36 15.9 12.7 81 1023.8 6.0 W 17.4 0.0 0.0
05:37 15.9 12.7 81 1023.8 6.0 W 17.4 0.0 0.0
05:38 15.9 12.7 81 1023.8 13.0 NE 17.4 0.0 0.0
05:39 15.9 12.7 81 1023.9 13.6 E 17.4 0.0 0.0
05:40 15.9 12.7 81 1023.7 13.6 NE 15.2 0.0 0.0
05:41 15.9 12.7 81 1023.9 9.8 S 15.2 0.0 0.0
05:42 15.9 12.7 81 1023.8 13.6 NNW 15.2 0.0 0.0
05:43 15.9 12.7 81 1023.8 8.3 SW 15.2 0.0 0.0
05:44 15.9 12.7 81 1023.7 8.3 E 14.5 0.0 0.0
05:45 15.9 12.7 81 1023.7 9.8 E 13.6 0.0 0.0
05:46 15.9 12.7 81 1023.7 9.8 E 13.6 0.0 0.0
05:47 15.9 12.7 81 1023.8 12.1 E 13.6 0.0 0.0
05:49 15.9 12.7 81 1023.7 9.8 NE 13.6 0.0 0.0
05:50 15.9 12.7 81 1023.6 15.9 N 15.9 0.0 0.0
05:51 15.9 12.7 81 1023.6 15.9 E 15.9 0.0 0.0
05:52 15.9 12.7 81 1023.9 10.7 S 15.9 0.0 0.0
05:53 15.9 12.7 81 1023.5 15.9 N 15.9 0.0 0.0
05:54 15.9 12.7 81 1023.7 10.7 SE 15.9 0.0 0.0
05:55 15.9 12.7 81 1023.7 8.3 E 15.9 0.0 0.0
05:56 15.9 12.7 81 1023.7 5.4 NE 15.9 0.0 0.0
05:57 15.8 12.6 81 1023.7 4.5 NE 15.9 0.0 0.0
05:58 15.8 12.6 81 1023.7 13.0 S 15.9 0.0 0.0
05:59 15.8 12.6 81 1023.8 9.8 NW 15.9 0.0 0.0
06:00 15.8 12.6 81 1023.7 10.7 NE 15.9 0.0 0.0
06:01 15.8 12.6 81 1023.7 10.7 E 15.9 0.0 0.0
06:03 15.8 12.6 81 1023.6 9.8 NE 13.6 0.0 0.0
06:04 15.8 12.6 81 1023.7 11.4 NE 13.0 0.0 0.0
06:05 15.8 12.6 81 1023.7 11.4 NE 13.0 0.0 0.0
06:06 15.8 12.6 81 1023.7 12.1 E 13.0 0.0 0.0
06:07 15.8 12.6 81 1023.6 7.6 E 13.0 0.0 0.0
06:08 15.8 12.6 81 1023.5 9.2 E 13.0 0.0 0.0
06:09 15.8 12.6 81 1023.6 9.2 NE 13.0 0.0 0.0
06:10 15.8 12.6 81 1023.5 9.2 NNE 12.1 0.0 0.0
06:11 15.8 12.6 81 1023.5 7.6 NE 12.1 0.0 0.0
06:12 15.8 12.6 81 1023.5 17.4 E 17.4 0.0 0.0
06:13 15.8 12.6 81 1023.7 10.7 E 17.4 0.0 0.0
06:14 15.8 12.6 81 1023.6 9.2 NE 17.4 0.0 0.0
06:15 15.8 12.6 81 1023.6 11.4 S 17.4 0.0 0.0
06:17 15.8 12.6 81 1023.8 8.3 N 17.4 0.0 0.0
06:18 15.8 12.6 81 1023.8 13.6 ENE 17.4 0.0 0.0
06:19 15.8 12.6 81 1023.5 9.8 NE 17.4 0.0 0.0
06:20 15.7 12.5 81 1023.6 9.2 E 17.4 0.0 0.0
06:21 15.7 12.5 81 1023.7 8.3 NE 17.4 0.0 0.0
06:22 15.7 12.5 81 1023.6 13.6 NE 17.4 0.0 0.0
06:23 15.7 12.5 81 1023.4 7.6 NE 13.6 0.0 0.0
06:24 15.7 12.5 81 1023.6 6.9 E 13.6 0.0 0.0
06:25 15.7 12.5 81 1023.5 9.8 NE 13.6 0.0 0.0
06:26 15.7 12.5 81 1023.6 7.6 SE 13.6 0.0 0.0
06:27 15.7 12.5 81 1023.6 8.3 E 13.6 0.0 0.0
06:28 15.7 12.5 81 1023.5 11.4 E 13.6 0.0 0.0
06:29 15.7 12.5 81 1023.5 11.4 NE 13.6 0.0 0.0
06:31 15.7 12.5 81 1023.4 9.2 E 13.6 0.0 0.0
06:32 15.7 12.5 81 1023.6 9.2 E 12.1 0.0 0.0
06:33 15.6 12.4 81 1023.5 9.2 NE 12.1 0.0 0.0
06:34 15.6 12.4 81 1023.5 8.3 E 12.1 0.0 0.0
06:35 15.6 12.4 81 1023.7 11.4 E 12.1 0.0 0.0
06:36 15.6 12.4 81 1023.4 10.7 NW 12.1 0.0 0.0
06:37 15.6 12.4 81 1023.5 5.4 E 12.1 0.0 0.0
06:38 15.6 12.4 81 1023.6 6.9 NE 12.1 0.0 0.0
06:39 15.6 12.4 81 1023.4 11.4 E 12.1 0.0 0.0
06:40 15.6 12.4 81 1023.4 11.4 E 12.1 0.0 0.0
06:41 15.5 12.3 81 1023.5 9.8 NE 11.4 0.0 0.0
06:42 15.5 12.3 81 1023.7 10.7 ESE 11.4 0.0 0.0
06:43 15.5 12.3 81 1023.5 4.5 NNW 11.4 0.0 0.0
06:45 15.5 12.3 81 1023.6 6.0 NE 11.4 0.0 0.0
06:46 15.5 12.3 81 1023.5 8.3 NE 11.4 0.0 0.0
06:47 15.5 12.3 81 1023.4 11.4 E 11.4 0.0 0.0
06:48 15.5 12.3 81 1023.4 11.4 E 11.4 0.0 0.0
06:49 15.5 12.3 81 1023.5 9.2 E 11.4 0.0 0.0
06:50 15.5 12.3 81 1023.5 9.2 E 11.4 0.0 0.0
06:51 15.5 12.3 81 1023.5 10.7 NE 11.4 0.0 0.0
06:52 15.5 12.3 81 1023.8 10.7 N 11.4 0.0 0.0
06:53 15.5 12.3 81 1023.5 10.7 N 11.4 0.0 0.0
06:54 15.5 12.3 81 1023.6 6.9 NNW 11.4 0.0 0.0
06:55 15.5 12.3 81 1023.3 8.3 NE 11.4 0.0 0.0
06:56 15.5 12.3 81 1023.5 8.3 NE 11.4 0.0 0.0
06:57 15.5 12.3 81 1023.5 7.6 NE 11.4 0.0 0.0
06:59 15.5 12.3 81 1023.4 10.7 NE 10.7 0.0 0.0
07:00 15.5 12.3 81 1023.5 10.7 NE 10.7 0.0 0.0
07:01 15.5 12.3 81 1023.5 10.7 NE 10.7 0.0 0.0
07:02 15.5 12.3 81 1023.6 9.2 N 10.7 0.0 0.0
07:03 15.5 12.3 81 1023.6 8.3 S 10.7 0.0 0.0
07:04 15.5 12.3 81 1023.6 8.3 S 10.7 0.0 0.0
07:05 15.5 12.3 81 1023.6 9.8 SE 10.7 0.0 0.0
07:06 15.5 12.3 81 1023.5 6.9 NNE 10.7 0.0 0.0
07:07 15.5 12.3 81 1023.6 7.6 ESE 10.7 0.0 0.0
07:08 15.5 12.3 81 1023.7 11.4 E 11.4 0.0 0.0
07:09 15.5 12.3 81 1023.6 16.8 E 16.8 0.0 0.0
07:10 15.5 12.3 81 1023.7 6.9 N 16.8 0.0 0.0
07:11 15.6 12.4 81 1023.6 10.7 E 16.8 0.0 0.0
07:12 15.6 12.4 81 1023.5 9.8 NE 16.8 0.0 0.0
07:14 15.6 12.4 81 1023.8 9.2 SW 16.8 0.0 0.0
07:15 15.6 12.4 81 1023.6 9.2 E 16.8 0.0 0.0
07:16 15.6 12.4 81 1023.6 9.2 E 16.8 0.0 0.0
07:17 15.6 12.4 81 1023.8 8.3 SE 16.8 0.0 0.0
07:18 15.6 12.4 81 1023.5 13.0 E 16.8 0.0 0.0
07:19 15.6 12.4 81 1023.7 8.3 E 16.8 0.0 0.0
07:20 15.6 12.4 81 1023.7 12.1 E 13.0 0.0 0.0
07:21 15.6 12.4 81 1023.4 12.1 E 13.0 0.0 0.0
07:22 15.6 12.4 81 1023.8 12.1 NE 13.0 0.0 0.0
07:23 15.6 12.4 81 1023.7 10.7 NE 13.0 0.0 0.0
07:24 15.6 12.4 81 1023.4 10.7 E 13.0 0.0 0.0
07:25 15.6 12.4 81 1023.7 10.7 E 13.0 0.0 0.0
07:27 15.6 12.4 81 1023.6 12.1 SW 13.0 0.0 0.0
07:28 15.6 12.4 81 1023.8 10.7 NE 12.1 0.0 0.0
07:29 15.6 12.4 81 1023.7 8.3 E 12.1 0.0 0.0
07:30 15.6 12.4 81 1023.7 10.7 E 12.1 0.0 0.0
07:31 15.6 12.4 81 1023.7 10.7 E 12.1 0.0 0.0
07:32 15.6 12.4 81 1023.4 9.2 NE 12.1 0.0 0.0
07:33 15.6 12.4 81 1023.5 9.2 E 12.1 0.0 0.0
07:34 15.6 12.4 81 1023.6 13.0 NE 13.0 0.0 0.0
07:35 15.6 12.4 81 1023.7 13.0 NNW 13.0 0.0 0.0
07:36 15.6 12.4 81 1023.7 13.0 NNW 13.0 0.0 0.0
07:37 15.6 12.4 81 1023.9 6.0 E 13.0 0.0 0.0
07:38 15.7 12.5 81 1023.8 9.8 E 13.0 0.0 0.0
07:39 15.7 12.5 81 1023.8 7.6 N 13.0 0.0 0.0
07:40 15.7 12.5 81 1023.7 7.6 N 13.0 0.0 0.0
07:42 15.7 12.5 81 1023.9 7.6 N 13.0 0.0 0.0
07:43 15.7 12.5 81 1023.8 7.6 N 13.0 0.0 0.0
07:44 15.7 12.5 81 1023.8 7.6 N 13.0 0.0 0.0
07:45 15.7 12.5 81 1023.6 7.6 N 13.0 0.0 0.0
07:46 15.7 12.5 81 1023.7 10.7 E 13.0 0.0 0.0
07:47 15.7 12.5 81 1023.7 15.9 E 15.9 0.0 0.0
07:48 15.7 12.5 81 1023.8 15.9 E 15.9 0.0 0.0
07:49 15.7 12.5 81 1023.5 15.9 E 15.9 0.0 0.0
07:50 15.7 12.5 81 1023.8 9.2 NE 15.9 0.0 0.0
07:51 15.7 12.5 81 1023.6 18.3 E 18.3 0.0 0.0
07:52 15.7 12.5 81 1023.8 18.3 E 18.3 0.0 0.0
07:53 15.7 12.3 80 1023.6 11.4 W 18.3 0.0 0.0
07:54 15.7 12.3 80 1023.5 13.6 NE 18.3 0.0 0.0
07:56 15.7 12.3 80 1023.4 10.7 NE 18.3 0.0 0.0
07:57 15.7 12.3 80 1023.5 10.7 NE 18.3 0.0 0.0
07:58 15.7 12.3 80 1023.7 10.7 NE 18.3 0.0 0.0
07:59 15.7 12.3 80 1023.5 10.7 NE 18.3 0.0 0.0
08:00 15.7 12.3 80 1023.9 10.7 NE 18.3 0.0 0.0
08:01 15.7 12.3 80 1023.7 10.7 NE 18.3 0.0 0.0
08:02 15.7 12.3 80 1023.9 15.9 NE 18.3 0.0 0.0
08:03 15.7 12.3 80 1023.7 15.9 NE 15.9 0.0 0.0
08:04 15.7 12.3 80 1023.8 13.6 E 15.9 0.0 0.0
08:05 15.7 12.3 80 1023.6 13.6 E 15.9 0.0 0.0
08:06 15.7 12.3 80 1023.6 14.5 E 18.3 0.0 0.0
08:07 15.7 12.3 80 1023.9 14.5 E 18.3 0.0 0.0
08:08 15.7 12.3 80 1023.7 13.0 ESE 18.3 0.0 0.0
08:10 15.7 12.3 80 1023.8 9.8 E 18.3 0.0 0.0
08:11 15.7 12.3 80 1023.9 9.8 E 18.3 0.0 0.0
08:12 15.7 12.3 80 1023.9 9.8 E 18.3 0.0 0.0
08:13 15.7 12.3 80 1023.8 9.8 E 18.3 0.0 0.0
08:14 15.7 12.3 80 1023.7 8.3 NE 18.3 0.0 0.0
08:15 15.7 12.3 80 1023.7 6.9 NE 18.3 0.0 0.0
08:16 15.7 12.3 80 1023.7 6.9 NE 14.5 0.0 0.0
08:17 15.7 12.3 80 1023.8 6.9 NE 14.5 0.0 0.0
08:18 15.7 12.3 80 1023.9 12.1 SW 13.0 0.0 0.0
08:19 15.7 12.3 80 1024.0 12.1 SW 13.0 0.0 0.0
08:20 15.7 12.3 80 1023.9 8.3 W 12.1 0.0 0.0
08:21 15.7 12.3 80 1024.1 9.8 ESE 12.1 0.0 0.0
08:22 15.7 12.3 80 1023.8 9.8 ESE 12.1 0.0 0.0
08:24 15.7 12.3 80 1023.9 9.8 ESE 12.1 0.0 0.0
08:25 15.7 12.3 80 1024.1 9.8 ESE 12.1 0.0 0.0
08:26 15.6 12.2 80 1023.8 19.0 E 19.0 0.0 0.0
08:27 15.6 12.2 80 1024.0 18.3 E 19.0 0.0 0.0
08:28 15.6 12.2 80 1024.0 13.6 E 19.0 0.0 0.0
08:29 15.6 12.2 80 1023.9 13.6 E 19.0 0.0 0.0
08:30 15.6 12.2 80 1024.1 12.1 NE 19.0 0.0 0.0
08:31 15.6 12.2 80 1024.1 12.1 NE 19.0 0.0 0.0
08:32 15.6 12.2 80 1023.9 12.1 E 19.0 0.0 0.0
08:33 15.6 12.2 80 1023.9 12.1 E 19.0 0.0 0.0
08:34 15.6 12.2 80 1024.0 13.6 NNW 19.0 0.0 0.0
08:35 15.6 12.2 80 1023.9 12.1 E 19.0 0.0 0.0
08:36 15.6 12.2 80 1024.0 14.5 W 18.3 0.0 0.0
08:38 15.6 12.2 80 1024.1 9.8 N 14.5 0.0 0.0
08:39 15.6 12.2 80 1024.0 13.6 E 14.5 0.0 0.0
08:40 15.6 12.2 80 1024.0 13.6 E 14.5 0.0 0.0
08:41 15.6 12.2 80 1024.1 11.4 E 14.5 0.0 0.0
08:42 15.6 12.2 80 1024.0 13.0 SE 14.5 0.0 0.0
08:43 15.6 12.2 80 1024.1 9.8 E 14.5 0.0 0.0
08:44 15.6 12.2 80 1024.3 9.8 SW 14.5 0.0 0.0
08:45 15.6 12.2 80 1024.0 13.6 E 14.5 0.0 0.0
08:46 15.6 12.2 80 1024.1 11.4 NE 14.5 0.0 0.0
08:47 15.6 12.2 80 1024.1 7.6 E 14.5 0.0 0.0
08:48 15.6 12.2 80 1024.0 15.2 NE 15.2 0.0 0.0
08:49 15.6 12.2 80 1024.1 15.2 E 15.2 0.0 0.0
08:50 15.6 12.2 80 1024.1 12.1 NE 15.2 0.0 0.0
08:52 15.6 12.2 80 1024.1 9.2 E 15.2 0.0 0.0
08:53 15.6 12.2 80 1024.2 10.7 E 15.2 0.0 0.0
08:54 15.5 12.1 80 1024.1 18.3 NE 18.3 0.0 0.0
08:55 15.5 12.1 80 1024.2 18.3 SE 18.3 0.0 0.0
08:56 15.5 12.1 80 1023.9 10.7 E 18.3 0.0 0.0
08:57 15.5 12.1 80 1024.2 13.0 ENE 18.3 0.0 0.0
08:58 15.5 12.1 80 1024.1 12.1 NE 18.3 0.0 0.0
08:59 15.5 12.1 80 1024.2 9.8 E 18.3 0.0 0.0
09:00 15.5 12.1 80 1024.1 9.8 E 18.3 0.0 0.0
09:01 15.5 12.1 80 1024.3 9.8 E 18.3 0.0 0.0
09:02 15.5 12.1 80 1024.1 9.8 E 18.3 0.0 0.0
09:03 15.5 12.1 80 1024.3 9.8 E 18.3 0.0 0.0
09:04 15.5 12.1 80 1024.3 9.8 E 18.3 0.0 0.0
09:06 15.5 12.1 80 1024.3 8.3 E 14.5 0.0 0.0
09:07 15.5 12.1 80 1024.2 9.8 SE 15.2 0.0 0.0
09:08 15.5 12.1 80 1024.2 9.8 SE 15.2 0.0 0.0
09:09 15.5 12.1 80 1024.1 9.2 NE 15.2 0.0 0.0
09:10 15.5 12.1 80 1024.3 15.9 E 15.9 0.0 0.0
09:11 15.5 12.1 80 1024.4 10.7 SE 15.9 0.0 0.0
09:12 15.5 12.1 80 1024.2 9.8 NNW 15.9 0.0 0.0
09:13 15.5 12.1 80 1024.3 9.8 NNW 15.9 0.0 0.0
09:14 15.5 12.1 80 1024.2 15.9 E 19.0 0.0 0.0
09:15 15.5 12.1 80 1024.5 14.5 E 19.0 0.0 0.0
09:16 15.5 12.1 80 1024.3 11.4 N 19.0 0.0 0.0
09:17 15.5 12.1 80 1024.4 15.9 NE 19.0 0.0 0.0
09:18 15.5 12.1 80 1024.1 10.7 S 19.0 0.0 0.0
09:20 15.5 12.1 80 1024.3 13.6 E 19.0 0.0 0.0
09:21 15.5 12.1 80 1024.2 13.0 NW 19.0 0.0 0.0
09:22 15.5 12.1 80 1024.4 15.2 N 19.0 0.0 0.0
09:23 15.5 12.1 80 1024.1 15.9 SE 19.0 0.0 0.0
09:24 15.5 12.1 80 1024.3 16.8 SE 16.8 0.0 0.0
09:25 15.5 12.1 80 1024.6 13.6 E 16.8 0.0 0.0
09:26 15.5 12.1 80 1024.3 16.8 E 18.3 0.0 0.0
09:27 15.5 12.1 80 1024.3 17.4 E 18.3 0.0 0.0
09:28 15.5 12.1 80 1024.3 17.4 E 18.3 0.0 0.0
09:29 15.5 11.9 79 1024.3 14.5 E 18.3 0.0 0.0
09:30 15.5 11.9 79 1024.3 15.9 NE 18.3 0.0 0.0
09:31 15.5 11.9 79 1024.3 15.2 ENE 18.3 0.0 0.0
09:32 15.5 11.9 79 1024.4 15.2 SW 18.3 0.0 0.0
09:34 15.5 11.9 79 1024.3 14.5 SE 18.3 0.0 0.0
09:35 15.5 11.9 79 1024.4 19.7 NE 19.7 0.0 0.0
09:36 15.5 11.9 79 1024.4 19.7 NE 19.7 0.0 0.0
09:37 15.5 11.9 79 1024.4 19.7 NE 19.7 0.0 0.0
09:38 15.5 11.9 79 1024.2 15.9 SE 19.7 0.0 0.0
09:39 15.5 11.9 79 1024.4 11.4 NE 19.7 0.0 0.0
09:40 15.5 11.9 79 1024.5 14.5 NE 19.7 0.0 0.0
09:41 15.5 11.9 79 1024.4 9.2 NE 19.7 0.0 0.0
09:42 15.6 12.0 79 1024.3 16.8 NE 19.7 0.0 0.0
09:43 15.6 12.0 79 1024.4 13.0 S 19.7 0.0 0.0
09:44 15.6 11.8 78 1024.4 11.4 NE 19.7 0.0 0.0
09:45 15.6 11.8 78 1024.4 18.3 ENE 19.7 0.0 0.0
09:46 15.6 11.8 78 1024.5 12.1 SE 19.7 0.0 0.0
09:48 15.6 11.8 78 1024.4 15.9 NE 18.3 0.0 0.0
09:49 15.6 11.8 78 1024.3 15.9 E 18.3 0.0 0.0
09:50 15.6 11.8 78 1024.2 19.0 NE 19.0 0.0 0.0
09:51 15.6 11.8 78 1024.3 19.0 NE 19.0 0.0 0.0
09:52 15.6 11.8 78 1024.3 11.4 S 19.0 0.0 0.0
09:53 15.6 12.0 79 1024.2 10.7 NE 19.0 0.0 0.0
09:54 15.6 12.0 79 1024.3 8.3 NE 19.0 0.0 0.0
09:55 15.6 12.0 79 1024.4 8.3 NE 19.0 0.0 0.0
09:56 15.6 12.0 79 1024.3 14.5 NE 19.0 0.0 0.0
09:57 15.6 12.0 79 1024.4 12.1 NE 19.0 0.0 0.0
09:58 15.7 12.1 79 1024.3 12.1 E 19.0 0.0 0.0
09:59 15.7 12.1 79 1024.4 12.1 NE 19.0 0.0 0.0
10:00 15.7 12.1 79 1024.2 12.1 NE 19.0 0.0 0.0
10:02 15.7 11.9 78 1024.4 14.5 S 14.5 0.0 0.0
10:03 15.7 11.9 78 1024.3 18.3 NE 18.3 0.0 0.0
10:04 15.7 11.9 78 1024.3 18.3 NE 18.3 0.0 0.0
10:05 15.7 11.9 78 1024.4 17.4 E 18.3 0.0 0.0
10:06 15.7 11.9 78 1024.4 15.9 ESE 18.3 0.0 0.0
10:07 15.7 11.9 78 1024.3 22.8 W 22.8 0.0 0.0
10:08 15.7 11.9 78 1024.3 22.8 E 22.8 0.0 0.0
10:09 15.7 11.9 78 1024.2 14.5 NE 22.8 0.0 0.0
10:10 15.7 11.9 78 1024.4 15.2 E 22.8 0.0 0.0
10:11 15.7 11.9 78 1024.3 13.0 NE 22.8 0.0 0.0
10:12 15.7 11.9 78 1024.5 6.9 N 22.8 0.0 0.0
10:13 15.7 11.9 78 1024.4 6.9 N 22.8 0.0 0.0
10:14 15.7 11.9 78 1024.3 6.9 E 22.8 0.0 0.0
10:16 15.8 12.0 78 1024.3 11.4 NE 22.8 0.0 0.0
10:17 15.8 12.0 78 1024.4 11.4 NE 22.8 0.0 0.0
10:18 15.8 12.0 78 1024.6 16.8 E 22.8 0.0 0.0
10:19 15.8 12.0 78 1024.4 12.1 E 16.8 0.0 0.0
10:20 15.8 12.0 78 1024.5 12.1 E 16.8 0.0 0.0
10:21 15.8 12.0 78 1024.3 10.7 E 16.8 0.0 0.0
10:22 15.9 12.1 78 1024.5 21.3 E 21.3 0.0 0.0
10:23 15.9 12.1 78 1024.6 21.3 E 21.3 0.0 0.0
10:24 15.9 11.9 77 1024.4 19.0 E 21.3 0.0 0.0
10:25 15.9 11.9 77 1024.4 13.6 SE 21.3 0.0 0.0
10:26 15.9 11.9 77 1024.2 17.4 SE 21.3 0.0 0.0
10:27 15.9 11.9 77 1024.3 15.2 NE 21.3 0.0 0.0
10:28 15.9 11.9 77 1024.3 14.5 E 21.3 0.0 0.0
10:30 15.9 11.9 77 1024.1 18.3 NE 21.3 0.0 0.0
10:31 16.0 12.0 77 1024.1 13.6 E 21.3 0.0 0.0
10:32 16.0 12.0 77 1024.1 13.6 E 21.3 0.0 0.0
10:33 16.0 12.0 77 1024.1 13.6 E 21.3 0.0 0.0
10:34 16.0 12.0 77 1024.4 13.0 E 19.0 0.0 0.0
10:35 16.0 12.0 77 1024.5 9.8 SE 18.3 0.0 0.0
10:36 16.0 12.0 77 1024.4 9.8 NE 18.3 0.0 0.0
10:37 16.0 12.0 77 1024.3 14.5 NE 18.3 0.0 0.0
10:38 16.1 12.1 77 1024.4 12.1 N 18.3 0.0 0.0
10:39 16.1 12.1 77 1024.4 9.8 E 18.3 0.0 0.0
10:40 16.1 12.1 77 1024.4 15.2 NNW 18.3 0.0 0.0
10:41 16.1 12.1 77 1024.2 15.2 NNW 16.8 0.0 0.0
10:42 16.1 11.9 76 1024.1 14.5 E 16.8 0.0 0.0
10:44 16.1 11.9 76 1024.0 9.8 NE 16.8 0.0 0.0
10:45 16.2 12.0 76 1024.4 13.6 ENE 16.8 0.0 0.0
10:46 16.2 12.0 76 1024.4 13.6 ENE 16.8 0.0 0.0
10:47 16.2 12.0 76 1024.2 17.4 NE 17.4 0.0 0.0
10:48 16.2 12.0 76 1024.2 15.2 NE 17.4 0.0 0.0
10:49 16.2 12.0 76 1024.3 15.2 NE 17.4 0.0 0.0
10:50 16.2 11.8 75 1024.3 14.5 NE 17.4 0.0 0.0
10:51 16.2 11.8 75 1024.2 15.9 E 17.4 0.0 0.0
10:52 16.2 11.8 75 1024.5 10.7 NE 17.4 0.0 0.0
10:53 16.2 11.8 75 1024.2 7.6 ENE 17.4 0.0 0.0
10:54 16.3 12.1 76 1024.0 13.0 NE 17.4 0.0 0.0
10:55 16.3 12.1 76 1024.2 14.5 E 17.4 0.0 0.0
10:56 16.4 12.2 76 1024.3 12.1 NE 17.4 0.0 0.0
10:58 16.4 12.0 75 1024.3 17.4 SE 17.4 0.0 0.0
10:59 16.4 12.0 75 1024.1 19.7 NE 19.7 0.0 0.0
11:00 16.4 12.0 75 1024.1 19.7 NE 19.7 0.0 0.0
11:01 16.4 12.0 75 1024.2 19.7 NE 19.7 0.0 0.0
11:02 16.5 11.9 74 1024.2 16.8 NE 19.7 0.0 0.0
11:03 16.5 11.9 74 1024.0 13.0 NE 19.7 0.0 0.0
11:04 16.5 11.9 74 1024.1 15.9 E 19.7 0.0 0.0
11:05 16.6 12.0 74 1024.3 15.9 NE 19.7 0.0 0.0
11:06 16.7 12.1 74 1024.1 15.2 NE 19.7 0.0 0.0
11:07 16.7 12.1 74 1024.2 15.2 NE 19.7 0.0 0.0
11:08 16.8 12.1 74 1024.4 13.0 E 19.7 0.0 0.0
11:09 16.8 12.1 74 1024.1 13.0 E 19.7 0.0 0.0
11:10 16.9 12.2 74 1024.1 9.8 NE 19.7 0.0 0.0
11:11 17.0 12.1 73 1024.3 13.6 E 19.7 0.0 0.0
11:12 17.0 12.1 73 1024.3 14.5 E 15.9 0.0 0.0
11:13 17.0 12.1 73 1024.2 17.4 N 17.4 0.0 0.0
11:14 17.0 11.9 72 1024.2 13.6 SW 17.4 0.0 0.0
11:15 17.0 11.9 72 1024.1 13.0 NE 17.4 0.0 0.0
11:16 17.0 11.9 72 1024.0 9.8 NE 17.4 0.0 0.0
11:18 17.1 12.2 73 1024.3 9.2 E 17.4 0.0 0.0
11:19 17.3 12.4 73 1024.1 13.6 NE 17.4 0.0 0.0
11:20 17.3 12.4 73 1024.1 13.6 NE 17.4 0.0 0.0
11:21 17.4 12.5 73 1024.3 11.4 E 17.4 0.0 0.0
11:22 17.5 12.0 70 1024.2 11.4 NE 17.4 0.0 0.0
11:23 17.5 12.0 70 1024.1 13.6 E 17.4 0.0 0.0
11:24 17.6 12.1 70 1024.2 10.7 E 13.6 0.0 0.0
11:25 17.6 12.1 70 1024.3 17.4 ENE 17.4 0.0 0.0
11:26 17.7 11.9 69 1024.1 12.1 NE 17.4 0.0 0.0
11:27 17.8 12.0 69 1024.2 15.9 E 17.4 0.0 0.0
11:28 17.8 11.8 68 1024.3 11.4 E 18.3 0.0 0.0
11:29 17.8 11.8 68 1024.2 8.3 E 18.3 0.0 0.0
11:30 17.8 11.8 68 1024.1 8.3 E 18.3 0.0 0.0
11:31 17.9 11.7 67 1024.1 11.4 NE 18.3 0.0 0.0
11:33 18.0 11.8 67 1023.9 13.0 E 18.3 0.0 0.0
11:34 18.0 11.8 67 1024.1 13.0 E 18.3 0.0 0.0
11:35 18.1 12.1 68 1024.2 14.5 E 18.3 0.0 0.0
11:36 18.2 12.2 68 1024.1 14.5 WNW 18.3 0.0 0.0
11:37 18.2 12.2 68 1023.9 13.6 NW 18.3 0.0 0.0
11:38 18.3 12.1 67 1024.2 8.3 SW 18.3 0.0 0.0
11:39 18.3 12.1 67 1024.2 8.3 NE 18.3 0.0 0.0
11:40 18.4 12.2 67 1024.0 8.3 E 18.3 0.0 0.0
11:41 18.4 12.2 67 1023.9 9.2 NE 18.3 0.0 0.0
11:42 18.6 12.1 66 1024.0 18.3 NE 18.3 0.0 0.0
11:43 18.6 11.9 65 1024.1 13.6 E 18.3 0.0 0.0
11:44 18.6 11.9 65 1024.0 12.1 SE 18.3 0.0 0.0
11:45 18.6 11.9 65 1024.2 14.5 E 18.3 0.0 0.0
11:47 18.6 11.9 65 1023.8 9.2 NE 18.3 0.0 0.0
11:48 18.6 11.9 65 1023.7 14.5 NE 18.3 0.0 0.0
11:49 18.6 11.9 65 1023.7 14.5 NE 18.3 0.0 0.0
11:50 18.7 12.0 65 1024.1 6.9 NE 18.3 0.0 0.0
11:51 18.7 12.0 65 1023.9 6.9 NNE 18.3 0.0 0.0
11:52 18.8 12.1 65 1024.0 6.9 NE 18.3 0.0 0.0
11:53 18.9 12.2 65 1023.9 19.0 E 19.0 0.0 0.0
11:54 18.8 11.6 63 1023.9 13.0 ESE 19.0 0.0 0.0
11:55 18.8 11.6 63 1023.8 10.7 E 19.0 0.0 0.0
11:56 18.8 11.6 63 1024.0 15.2 E 19.0 0.0 0.0
11:57 18.9 12.0 64 1023.9 13.0 E 19.0 0.0 0.0
11:58 18.9 12.0 64 1023.8 13.6 E 19.0 0.0 0.0
11:59 18.9 11.7 63 1023.8 13.6 S 19.0 0.0 0.0
12:01 18.9 11.7 63 1023.7 13.6 S 19.0 0.0 0.0
12:02 18.9 11.7 63 1023.9 22.8 NE 22.8 0.0 0.0
12:03 18.9 11.5 62 1023.9 19.7 NE 22.8 0.0 0.0
12:04 18.9 11.5 62 1023.8 15.9 E 22.8 0.0 0.0
12:05 18.9 11.5 62 1023.6 14.5 ENE 22.8 0.0 0.0
12:06 18.9 11.5 62 1023.9 19.0 NE 22.8 0.0 0.0
12:07 18.9 11.5 62 1024.1 13.0 NE 22.8 0.0 0.0
12:08 19.0 11.6 62 1023.7 13.0 E 22.8 0.0 0.0
12:09 19.0 11.6 62 1023.8 13.0 E 22.8 0.0 0.0
12:10 19.0 11.6 62 1023.7 11.4 NE 22.8 0.0 0.0
12:11 19.1 11.9 63 1024.0 13.6 E 22.8 0.0 0.0
12:12 19.2 12.0 63 1023.9 13.6 W 22.8 0.0 0.0
12:13 19.2 11.8 62 1024.0 13.0 NE 19.0 0.0 0.0
12:15 19.4 11.9 62 1023.8 9.8 E 19.0 0.0 0.0
12:16 19.4 11.9 62 1024.1 8.3 N 19.0 0.0 0.0
12:17 19.4 11.9 62 1024.1 8.3 N 14.5 0.0 0.0
12:18 19.5 12.0 62 1023.8 15.2 NE 15.2 0.0 0.0
12:19 19.6 12.1 62 1023.9 9.8 N 15.2 0.0 0.0
12:20 19.6 11.9 61 1024.1 13.0 E 15.2 0.0 0.0
12:21 19.6 11.9 61 1024.1 13.0 NW 15.2 0.0 0.0
12:22 19.5 11.8 61 1023.8 22.8 E 22.8 0.0 0.0
12:23 19.5 11.8 61 1023.8 14.5 NE 22.8 0.0 0.0
12:24 19.5 11.8 61 1024.0 14.5 NE 22.8 0.0 0.0
12:25 19.5 11.5 60 1023.9 12.1 E 22.8 0.0 0.0
12:26 19.5 11.8 61 1023.6 12.1 SW 22.8 0.0 0.0
12:27 19.6 11.9 61 1023.7 15.2 WNW 22.8 0.0 0.0
12:29 19.6 11.6 60 1024.0 15.2 E 22.8 0.0 0.0
12:30 19.6 11.6 60 1023.8 14.5 SE 22.8 0.0 0.0
12:31 19.6 11.6 60 1023.7 17.4 N 22.8 0.0 0.0
12:32 19.6 11.6 60 1023.7 19.7 NW 22.8 0.0 0.0
12:33 19.6 11.6 60 1023.8 10.7 SW 19.7 0.0 0.0
12:34 19.6 11.4 59 1023.8 12.1 NE 19.7 0.0 0.0
12:35 19.6 11.4 59 1023.6 10.7 NE 19.7 0.0 0.0
12:36 19.6 11.4 59 1023.6 10.7 NE 19.7 0.0 0.0
12:37 19.6 11.4 59 1023.8 8.3 E 19.7 0.0 0.0
12:38 19.6 11.6 60 1023.8 13.6 E 19.7 0.0 0.0
12:39 19.7 11.7 60 1023.9 11.4 E 19.7 0.0 0.0
12:40 19.7 11.7 60 1023.8 19.0 N 19.7 0.0 0.0
12:41 19.7 11.5 59 1023.7 13.6 NE 19.7 0.0 0.0
12:43 19.7 11.5 59 1023.8 12.1 E 19.0 0.0 0.0
12:44 19.6 11.4 59 1023.7 10.7 N 19.0 0.0 0.0
12:45 19.6 11.6 60 1023.6 9.8 NE 19.0 0.0 0.0
12:46 19.7 11.7 60 1023.4 11.4 E 19.0 0.0 0.0
12:47 19.7 11.7 60 1023.7 11.4 E 19.0 0.0 0.0
12:48 19.8 11.6 59 1023.6 16.8 E 19.0 0.0 0.0
12:49 19.8 11.6 59 1023.5 15.9 E 19.0 0.0 0.0
12:50 19.8 11.3 58 1023.7 15.9 N 19.0 0.0 0.0
12:51 19.7 11.2 58 1023.6 15.9 E 16.8 0.0 0.0
12:52 19.7 11.2 58 1023.5 17.4 N 17.4 0.0 0.0
12:53 19.7 11.5 59 1023.7 12.1 N 17.4 0.0 0.0
12:54 19.7 11.5 59 1023.4 16.8 E 17.4 0.0 0.0
12:55 19.8 11.6 59 1023.4 15.9 E 17.4 0.0 0.0
12:57 19.9 11.7 59 1023.6 13.6 NE 17.4 0.0 0.0
12:58 19.9 11.4 58 1023.5 13.6 NE 17.4 0.0 0.0
12:59 20.0 11.8 59 1023.8 12.1 E 17.4 0.0 0.0
13:00 20.0 11.8 59 1023.8 12.1 E 17.4 0.0 0.0
13:01 20.0 11.8 59 1023.6 12.1 E 17.4 0.0 0.0
13:02 20.0 11.2 57 1023.4 15.2 NW 17.4 0.0 0.0
13:03 20.0 11.2 57 1023.7 12.1 N 16.8 0.0 0.0
13:04 20.0 11.2 57 1023.5 12.1 ENE 16.8 0.0 0.0
13:05 20.0 11.2 57 1023.5 9.8 NE 16.8 0.0 0.0
13:06 20.1 11.6 58 1023.5 15.2 NE 15.9 0.0 0.0
13:07 20.1 11.1 56 1023.6 12.1 E 16.8 0.0 0.0
13:08 20.1 11.3 57 1023.5 9.2 NW 16.8 0.0 0.0
13:09 20.1 11.6 58 1023.5 13.0 WSW 16.8 0.0 0.0
13:10 20.1 11.6 58 1023.4 14.5 E 16.8 0.0 0.0
13:12 20.2 11.4 57 1023.4 14.5 NE 16.8 0.0 0.0
13:13 20.3 11.5 57 1023.3 10.7 E 16.8 0.0 0.0
13:14 20.3 11.5 57 1023.5 10.7 E 16.8 0.0 0.0
13:15 20.4 11.9 58 1023.6 17.4 E 17.4 0.0 0.0
13:17 20.4 11.3 56 1023.3 11.4 E 17.4 0.0 0.0
13:18 20.3 11.0 55 1023.4 16.8 E 17.4 0.0 0.0
13:19 20.3 11.0 55 1023.3 15.2 SE 17.4 0.0 0.0
13:20 20.2 10.9 55 1023.3 15.2 NE 17.4 0.0 0.0
13:21 20.2 10.9 55 1023.5 15.2 W 17.4 0.0 0.0
13:22 20.1 10.8 55 1023.3 13.6 S 17.4 0.0 0.0
13:23 20.1 10.8 55 1023.2 16.8 W 17.4 0.0 0.0
13:24 20.0 10.7 55 1023.4 16.8 E 17.4 0.0 0.0
13:25 20.0 10.7 55 1023.5 15.9 E 17.4 0.0 0.0
13:26 19.9 10.6 55 1023.5 15.2 NE 17.4 0.0 0.0
13:27 19.9 10.9 56 1023.4 12.1 SE 16.8 0.0 0.0
13:28 19.9 10.9 56 1023.4 16.8 N 16.8 0.0 0.0
13:29 20.0 11.2 57 1023.3 16.8 NE 16.8 0.0 0.0
13:31 20.1 11.1 56 1023.5 13.0 W 16.8 0.0 0.0
13:32 20.1 11.1 56 1023.4 20.6 NE 20.6 0.0 0.0
13:33 20.1 11.1 56 1023.4 20.6 NE 20.6 0.0 0.0
13:34 20.1 11.1 56 1023.2 12.1 E 20.6 0.0 0.0
13:35 20.1 11.1 56 1023.6 14.5 E 20.6 0.0 0.0
13:36 20.1 11.1 56 1023.5 12.1 N 20.6 0.0 0.0
13:37 20.1 11.1 56 1023.3 15.2 E 20.6 0.0 0.0
13:38 20.2 10.9 55 1023.4 17.4 E 20.6 0.0 0.0
13:39 20.2 10.9 55 1023.2 19.0 E 20.6 0.0 0.0
13:40 20.1 10.5 54 1023.1 14.5 E 20.6 0.0 0.0
13:41 20.1 10.8 55 1023.3 13.6 NE 20.6 0.0 0.0
13:42 20.1 11.1 56 1023.4 15.2 E 20.6 0.0 0.0
13:43 20.1 10.8 55 1023.2 15.9 N 19.0 0.0 0.0
13:45 20.2 11.2 56 1023.3 9.2 NW 19.0 0.0 0.0
13:46 20.2 11.2 56 1023.3 16.8 N 19.0 0.0 0.0
13:47 20.2 11.2 56 1023.1 15.2 N 19.0 0.0 0.0
13:48 20.2 11.2 56 1023.4 14.5 E 19.0 0.0 0.0
13:49 20.2 11.2 56 1023.1 10.7 E 19.0 0.0 0.0
13:50 20.3 11.5 57 1023.1 12.1 N 16.8 0.0 0.0
13:51 20.3 11.2 56 1023.3 7.6 E 16.8 0.0 0.0
13:52 20.3 11.5 57 1023.2 12.1 E 16.8 0.0 0.0
13:53 20.4 11.6 57 1023.2 13.6 WNW 16.8 0.0 0.0
13:54 20.3 11.2 56 1023.2 17.4 E 17.4 0.0 0.0
13:55 20.3 11.2 56 1023.3 9.8 E 17.4 0.0 0.0
13:56 20.3 11.2 56 1023.2 11.4 NE 17.4 0.0 0.0
13:57 20.3 11.2 56 1023.2 8.3 SE 17.4 0.0 0.0
13:59 20.4 11.3 56 1023.2 13.6 E 17.4 0.0 0.0
14:00 20.4 11.3 56 1023.0 13.6 E 17.4 0.0 0.0
14:01 20.4 11.3 56 1023.2 13.6 E 17.4 0.0 0.0
14:02 20.3 11.2 56 1023.2 19.7 NE 19.7 0.0 0.0
14:03 20.3 11.2 56 1023.0 13.0 NNW 19.7 0.0 0.0
14:04 20.3 11.0 55 1023.1 17.4 NE 19.7 0.0 0.0
14:05 20.2 10.9 55 1023.4 19.0 E 19.7 0.0 0.0
14:06 20.2 10.9 55 1023.1 15.2 W 19.7 0.0 0.0
14:07 20.1 10.8 55 1023.1 15.9 E 19.7 0.0 0.0
14:08 20.1 11.1 56 1023.1 15.9 E 19.7 0.0 0.0
14:09 20.1 11.1 56 1023.2 22.8 NE 22.8 0.0 0.0
14:10 20.0 11.0 56 1023.0 14.5 NE 22.8 0.0 0.0
14:11 20.1 11.3 57 1022.8 15.2 NE 22.8 0.0 0.0
14:12 20.1 11.3 57 1023.0 13.6 E 22.8 0.0 0.0
14:14 20.1 11.3 57 1023.0 13.0 E 22.8 0.0 0.0
14:15 20.1 11.1 56 1022.9 16.8 NNW 22.8 0.0 0.0
14:16 20.1 11.1 56 1022.9 16.8 NNW 22.8 0.0 0.0
14:17 20.1 10.8 55 1022.9 15.2 E 22.8 0.0 0.0
14:18 20.0 10.7 55 1022.8 15.2 E 22.8 0.0 0.0
14:19 20.0 11.0 56 1022.9 15.2 E 19.0 0.0 0.0
14:20 20.0 11.0 56 1022.9 15.9 E 16.8 0.0 0.0
14:21 20.1 11.1 56 1022.8 15.9 W 16.8 0.0 0.0
14:22 20.1 11.1 56 1022.7 19.0 NE 19.0 0.0 0.0
14:23 20.0 11.2 57 1022.8 12.1 E 19.0 0.0 0.0
14:24 20.1 11.8 59 1022.8 8.3 E 19.0 0.0 0.0
14:25 20.2 11.9 59 1022.9 12.1 SW 19.0 0.0 0.0
14:26 20.2 11.9 59 1022.8 12.1 NW 19.0 0.0 0.0
14:28 20.3 11.5 57 1022.7 13.6 WNW 19.0 0.0 0.0
14:29 20.3 11.5 57 1023.0 13.6 WNW 19.0 0.0 0.0
14:30 20.3 11.2 56 1022.6 15.2 W 19.0 0.0 0.0
14:31 20.3 11.5 57 1022.8 10.7 N 19.0 0.0 0.0
14:32 20.3 11.5 57 1022.7 10.7 NW 19.0 0.0 0.0
14:33 20.3 11.5 57 1022.8 13.6 ESE 15.2 0.0 0.0
14:34 20.4 11.9 58 1022.9 11.4 SE 15.2 0.0 0.0
14:35 20.5 12.0 58 1022.9 9.8 NE 15.2 0.0 0.0
14:36 20.5 11.7 57 1022.8 13.0 NE 15.2 0.0 0.0
14:37 20.5 11.7 57 1022.6 10.7 N 15.2 0.0 0.0
14:38 20.6 11.8 57 1022.7 9.2 E 15.2 0.0 0.0
14:39 20.5 10.9 54 1022.7 14.5 E 20.6 0.0 0.0
14:40 20.4 10.8 54 1022.7 18.3 E 20.6 0.0 0.0
14:42 20.3 11.0 55 1022.9 14.5 E 20.6 0.0 0.0
14:43 20.3 11.2 56 1022.6 15.9 NE 20.6 0.0 0.0
14:44 20.3 11.2 56 1022.6 15.9 NE 20.6 0.0 0.0
14:45 20.2 10.9 55 1022.6 16.8 NE 20.6 0.0 0.0
14:46 20.1 10.8 55 1022.4 19.0 E 20.6 0.0 0.0
14:47 20.1 10.8 55 1022.6 15.9 E 20.6 0.0 0.0
14:48 20.1 11.1 56 1022.4 13.6 SW 20.6 0.0 0.0
14:49 20.1 11.1 56 1022.7 16.8 W 20.6 0.0 0.0
14:50 20.1 11.1 56 1022.7 19.7 E 19.7 0.0 0.0
14:51 20.1 11.1 56 1022.7 19.7 SE 19.7 0.0 0.0
14:52 20.0 11.0 56 1022.6 6.0 NE 19.7 0.0 0.0
14:53 20.1 11.3 57 1022.6 10.7 NE 19.7 0.0 0.0
14:54 20.1 11.3 57 1022.5 13.0 SE 19.7 0.0 0.0
14:56 20.3 11.5 57 1022.3 13.6 E 19.7 0.0 0.0
14:57 20.3 11.5 57 1022.6 15.2 SE 19.7 0.0 0.0
14:58 20.3 11.2 56 1022.6 15.9 E 19.7 0.0 0.0
14:59 20.3 11.2 56 1022.6 19.7 NE 19.7 0.0 0.0
15:00 20.3 11.2 56 1022.6 12.1 NE 19.7 0.0 0.0
15:01 20.3 11.2 56 1022.6 12.1 NE 19.7 0.0 0.0
15:02 20.3 11.2 56 1022.7 18.3 N 19.7 0.0 0.0
15:03 20.3 11.2 56 1022.7 15.2 N 19.7 0.0 0.0
15:04 20.3 11.2 56 1022.5 15.2 N 19.7 0.0 0.0
15:05 20.3 11.2 56 1022.7 14.5 NE 19.7 0.0 0.0
15:06 20.3 11.2 56 1022.4 15.2 E 19.7 0.0 0.0
15:07 20.3 11.2 56 1022.6 9.8 E 19.7 0.0 0.0
15:08 20.3 11.2 56 1022.4 11.4 NE 19.7 0.0 0.0
15:10 20.3 11.2 56 1022.6 11.4 W 18.3 0.0 0.0
15:11 20.2 10.9 55 1022.5 19.7 NW 19.7 0.0 0.0
15:12 20.2 10.9 55 1022.5 19.7 NW 19.7 0.0 0.0
15:13 20.2 10.9 55 1022.5 19.7 NW 19.7 0.0 0.0
15:14 20.2 11.2 56 1022.5 15.2 SE 19.7 0.0 0.0
15:15 20.1 11.1 56 1022.5 20.6 NE 20.6 0.0 0.0
15:16 20.1 11.1 56 1022.5 20.6 NE 20.6 0.0 0.0
15:18 20.1 11.1 56 1022.6 11.4 NE 20.6 0.0 0.0
15:19 20.2 11.2 56 1022.6 10.7 NE 20.6 0.0 0.0
15:20 20.2 11.2 56 1022.6 10.7 NE 20.6 0.0 0.0
15:21 20.2 11.2 56 1022.3 12.1 NE 20.6 0.0 0.0
15:22 20.2 11.2 56 1022.4 16.8 E 20.6 0.0 0.0
15:23 20.2 11.2 56 1022.4 13.6 NE 20.6 0.0 0.0
15:24 20.2 11.2 56 1022.5 13.0 NE 20.6 0.0 0.0
15:25 20.3 11.2 56 1022.5 11.4 SE 20.6 0.0 0.0
15:26 20.3 11.2 56 1022.6 12.1 E 20.6 0.0 0.0
15:27 20.3 11.0 55 1022.6 11.4 NE 16.8 0.0 0.0
15:28 20.4 11.3 56 1022.5 14.5 NE 16.8 0.0 0.0
15:29 20.4 11.1 55 1022.4 14.5 W 16.8 0.0 0.0
15:30 20.3 11.0 55 1022.5 14.5 NW 16.8 0.0 0.0
15:32 20.3 10.7 54 1022.7 14.5 SE 19.7 0.0 0.0
15:33 20.2 10.6 54 1022.6 15.2 NE 19.7 0.0 0.0
15:34 20.2 10.6 54 1022.6 12.1 NE 19.7 0.0 0.0
15:35 20.2 10.6 54 1022.4 12.1 E 19.7 0.0 0.0
15:36 20.1 10.5 54 1022.3 13.0 NE 19.7 0.0 0.0
15:37 20.1 10.8 55 1022.1 13.0 E 19.7 0.0 0.0
15:38 20.2 10.9 55 1022.5 15.9 E 19.7 0.0 0.0
15:39 20.2 10.9 55 1022.2 12.1 W 19.7 0.0 0.0
15:40 20.2 10.9 55 1022.3 14.5 NE 19.7 0.0 0.0
15:41 20.3 11.0 55 1022.3 13.0 SE 19.7 0.0 0.0
15:42 20.5 11.2 55 1022.4 10.7 E 15.9 0.0 0.0
15:43 20.5 10.9 54 1022.4 19.7 E 19.7 0.0 0.0
15:44 20.5 10.9 54 1022.5 13.0 N 19.7 0.0 0.0
15:46 20.5 10.9 54 1022.3 17.4 N 19.7 0.0 0.0
15:47 20.5 10.9 54 1022.4 11.4 E 19.7 0.0 0.0
15:48 20.6 11.0 54 1022.4 10.7 WSW 19.7 0.0 0.0
15:49 20.6 11.0 54 1022.4 10.7 WSW 19.7 0.0 0.0
15:50 20.7 11.1 54 1022.3 11.4 NE 19.7 0.0 0.0
15:51 20.7 11.1 54 1022.4 12.1 NE 19.7 0.0 0.0
15:52 20.7 11.1 54 1022.2 21.3 NE 21.3 0.0 0.0
15:53 20.6 10.7 53 1022.3 19.0 SE 21.3 0.0 0.0
15:54 20.5 10.6 53 1022.4 12.1 E 21.3 0.0 0.0
15:55 20.5 10.6 53 1022.3 11.4 E 21.3 0.0 0.0
15:56 20.4 10.8 54 1022.4 11.4 E 21.3 0.0 0.0
15:57 20.4 10.5 53 1022.3 11.4 E 21.3 0.0 0.0
15:58 20.4 10.5 53 1022.1 9.8 NE 21.3 0.0 0.0
16:00 20.4 10.5 53 1022.2 16.8 NE 21.3 0.0 0.0
16:01 20.4 10.5 53 1022.4 16.8 NE 21.3 0.0 0.0
16:02 20.4 10.5 53 1022.1 14.5 NE 19.0 0.0 0.0
16:03 20.4 10.5 53 1022.1 15.2 ENE 16.8 0.0 0.0
16:04 20.4 10.5 53 1022.2 15.2 NE 16.8 0.0 0.0
16:05 20.5 10.9 54 1022.4 16.8 E 16.8 0.0 0.0
16:06 20.4 10.5 53 1022.3 14.5 NE 18.3 0.0 0.0
16:07 20.4 10.5 53 1022.0 17.4 NE 18.3 0.0 0.0
16:08 20.3 10.4 53 1022.2 17.4 E 18.3 0.0 0.0
16:09 20.2 10.3 53 1022.4 13.6 NE 18.3 0.0 0.0
16:10 20.2 10.6 54 1022.3 13.0 SE 18.3 0.0 0.0
16:11 20.2 10.6 54 1022.2 13.6 S 18.3 0.0 0.0
16:12 20.2 10.6 54 1022.3 13.0 NE 18.3 0.0 0.0
16:13 20.2 10.6 54 1022.1 9.8 E 18.3 0.0 0.0
16:15 20.2 10.3 53 1022.1 12.1 E 18.3 0.0 0.0
16:16 20.2 10.6 54 1022.0 18.3 NE 18.3 0.0 0.0
16:17 20.3 10.7 54 1022.2 14.5 NE 18.3 0.0 0.0
16:18 20.3 10.7 54 1022.2 11.4 S 18.3 0.0 0.0
16:19 20.3 10.7 54 1021.8 9.8 SE 18.3 0.0 0.0
16:20 20.3 10.7 54 1022.0 16.8 E 18.3 0.0 0.0
16:21 20.3 10.4 53 1021.9 14.5 NW 18.3 0.0 0.0
16:22 20.3 10.7 54 1021.9 13.6 SE 18.3 0.0 0.0
16:23 20.3 10.7 54 1021.9 13.6 NE 18.3 0.0 0.0
16:24 20.2 10.3 53 1022.1 9.8 NE 18.3 0.0 0.0
16:25 20.2 10.6 54 1022.1 15.2 ENE 18.3 0.0 0.0
16:26 20.2 10.6 54 1021.8 6.9 NNW 18.3 0.0 0.0
16:27 20.2 10.6 54 1022.1 13.0 NE 16.8 0.0 0.0
16:29 20.2 10.6 54 1021.9 12.1 NE 16.8 0.0 0.0
16:30 20.2 10.6 54 1021.9 18.3 ENE 18.3 0.0 0.0
16:31 20.1 10.5 54 1021.9 15.9 SW 18.3 0.0 0.0
16:32 20.1 10.5 54 1021.9 15.9 SW 18.3 0.0 0.0
16:33 20.1 10.5 54 1021.9 13.6 E 18.3 0.0 0.0
16:34 20.1 10.5 54 1021.6 9.8 NW 18.3 0.0 0.0
16:35 20.1 10.5 54 1021.9 9.2 E 18.3 0.0 0.0
16:36 20.1 10.5 54 1022.1 16.8 E 18.3 0.0 0.0
16:37 20.1 10.5 54 1021.8 10.7 W 18.3 0.0 0.0
16:38 20.1 10.5 54 1021.9 16.8 E 18.3 0.0 0.0
16:39 20.0 10.4 54 1021.7 14.5 NE 18.3 0.0 0.0
16:40 20.0 10.7 55 1021.6 13.6 NE 16.8 0.0 0.0
16:41 20.0 10.7 55 1021.8 12.1 NE 16.8 0.0 0.0
16:42 19.9 10.6 55 1021.6 15.2 E 16.8 0.0 0.0
16:44 19.9 10.6 55 1021.6 25.1 NE 25.1 0.0 0.0
16:45 19.9 10.6 55 1021.6 25.1 NE 25.1 0.0 0.0
16:46 19.9 10.6 55 1021.9 15.9 N 25.1 0.0 0.0
16:47 19.8 10.8 56 1021.8 8.3 NE 25.1 0.0 0.0
16:48 19.8 10.8 56 1021.7 13.0 E 25.1 0.0 0.0
16:49 19.8 11.0 57 1021.8 12.1 NE 25.1 0.0 0.0
16:50 19.8 11.0 57 1021.9 9.8 NE 25.1 0.0 0.0
16:51 19.9 11.1 57 1021.4 18.3 NE 25.1 0.0 0.0
16:52 19.8 11.0 57 1021.9 18.3 NE 25.1 0.0 0.0
16:53 19.8 10.8 56 1021.6 16.8 E 25.1 0.0 0.0
16:54 19.8 10.8 56 1021.7 20.6 WNW 25.1 0.0 0.0
16:55 19.7 10.7 56 1021.7 13.6 E 25.1 0.0 0.0
16:56 19.7 10.7 56 1021.8 13.6 E 20.6 0.0 0.0
16:58 19.7 11.0 57 1021.9 13.6 NE 20.6 0.0 0.0
16:59 19.7 11.0 57 1021.8 11.4 NE 20.6 0.0 0.0
17:00 19.7 11.0 57 1021.8 11.4 NE 20.6 0.0 0.0
17:01 19.7 11.0 57 1021.7 11.4 NE 20.6 0.0 0.0
17:02 19.7 11.2 58 1021.6 13.6 E 20.6 0.0 0.0
17:03 19.7 11.2 58 1021.6 9.8 SW 20.6 0.0 0.0
17:04 19.7 11.2 58 1021.5 8.3 NE 20.6 0.0 0.0
17:05 19.7 11.2 58 1021.4 10.7 E 14.5 0.0 0.0
17:06 19.7 11.2 58 1021.5 22.1 NE 22.1 0.0 0.0
17:07 19.7 11.2 58 1021.8 22.1 NE 22.1 0.0 0.0
17:08 19.6 11.1 58 1021.7 13.0 NE 22.1 0.0 0.0
17:09 19.6 11.4 59 1021.5 13.0 E 22.1 0.0 0.0
17:10 19.6 11.4 59 1021.5 8.3 NE 22.1 0.0 0.0
17:12 19.6 11.6 60 1021.6 13.6 E 22.1 0.0 0.0
17:13 19.6 11.6 60 1021.8 13.6 E 22.1 0.0 0.0
17:14 19.6 11.4 59 1021.5 12.1 E 22.1 0.0 0.0
17:16 19.6 11.4 59 1021.7 9.2 NE 22.1 0.0 0.0
17:17 19.6 11.6 60 1021.5 9.8 N 22.1 0.0 0.0
17:18 19.6 11.6 60 1021.4 19.0 E 19.0 0.0 0.0
17:19 19.6 11.6 60 1021.5 14.5 ESE 19.0 0.0 0.0
17:20 19.6 11.6 60 1021.4 14.5 E 19.0 0.0 0.0
17:21 19.6 11.6 60 1021.5 14.5 N 19.0 0.0 0.0
17:22 19.5 11.5 60 1021.6 15.2 E 19.0 0.0 0.0
17:23 19.5 11.5 60 1021.5 15.2 E 19.0 0.0 0.0
17:24 19.4 11.4 60 1021.4 12.1 W 19.0 0.0 0.0
17:25 19.4 11.4 60 1021.6 7.6 NE 19.0 0.0 0.0
17:26 19.4 11.4 60 1021.5 8.3 NE 19.0 0.0 0.0
17:27 19.5 11.5 60 1021.7 13.6 NE 19.0 0.0 0.0
17:29 19.4 11.4 60 1021.4 13.6 N 15.2 0.0 0.0
17:30 19.4 11.4 60 1021.5 7.6 W 15.2 0.0 0.0
17:31 19.4 11.4 60 1021.3 7.6 NE 15.2 0.0 0.0
17:32 19.4 11.4 60 1021.4 9.2 E 15.2 0.0 0.0
17:33 19.4 11.4 60 1021.4 8.3 N 15.2 0.0 0.0
17:34 19.4 11.4 60 1021.3 8.3 N 13.6 0.0 0.0
17:35 19.3 11.4 60 1021.4 16.8 NE 16.8 0.0 0.0
17:36 19.3 11.4 60 1021.6 14.5 ENE 16.8 0.0 0.0
17:37 19.2 11.3 60 1021.4 13.0 NW 16.8 0.0 0.0
17:38 19.2 11.3 60 1021.3 13.0 E 16.8 0.0 0.0
17:39 19.1 11.2 60 1021.4 9.8 NE 17.4 0.0 0.0
17:40 19.1 11.4 61 1021.4 13.6 NE 17.4 0.0 0.0
17:41 19.1 11.4 61 1021.4 11.4 E 17.4 0.0 0.0
17:43 19.0 11.3 61 1021.5 9.2 E 17.4 0.0 0.0
17:44 19.0 11.3 61 1021.3 13.0 E 17.4 0.0 0.0
17:45 19.0 11.3 61 1021.3 13.0 E 17.4 0.0 0.0
17:46 19.0 11.3 61 1021.5 10.7 ENE 17.4 0.0 0.0
17:47 19.0 11.3 61 1021.3 11.4 N 17.4 0.0 0.0
17:48 19.0 11.3 61 1021.5 8.3 NE 17.4 0.0 0.0
17:49 19.0 11.3 61 1021.3 17.4 E 17.4 0.0 0.0
17:50 19.0 11.3 61 1021.1 14.5 E 17.4 0.0 0.0
17:51 19.0 11.3 61 1021.2 14.5 E 17.4 0.0 0.0
17:52 19.0 11.3 61 1021.3 12.1 NE 17.4 0.0 0.0
17:53 19.0 11.3 61 1021.3 15.2 NE 17.4 0.0 0.0
17:54 19.0 11.3 61 1021.3 8.3 N 17.4 0.0 0.0
17:55 18.9 11.2 61 1021.4 10.7 SW 17.4 0.0 0.0
17:57 18.9 11.5 62 1021.3 9.2 NE 17.4 0.0 0.0
17:58 18.9 11.5 62 1021.0 6.9 E 17.4 0.0 0.0
17:59 18.9 11.5 62 1021.2 6.9 E 15.2 0.0 0.0
18:00 18.9 11.5 62 1021.1 6.9 E 15.2 0.0 0.0
18:01 18.9 11.5 62 1021.3 6.9 E 15.2 0.0 0.0
18:02 18.9 11.5 62 1021.0 6.9 E 15.2 0.0 0.0
18:03 18.9 11.5 62 1021.0 6.9 E 15.2 0.0 0.0
18:04 18.9 11.5 62 1021.2 6.9 E 10.7 0.0 0.0
18:05 18.9 11.5 62 1021.2 6.9 E 10.7 0.0 0.0
18:06 18.7 11.0 61 1021.2 13.6 NE 16.8 0.0 0.0
18:07 18.7 11.3 62 1021.2 6.9 SE 16.8 0.0 0.0
18:08 18.7 11.3 62 1021.1 5.4 E 16.8 0.0 0.0
18:09 18.7 11.3 62 1021.1 11.4 ESE 16.8 0.0 0.0
18:11 18.7 11.3 62 1021.2 13.6 E 16.8 0.0 0.0
18:12 18.6 11.2 62 1021.3 10.7 E 16.8 0.0 0.0
18:13 18.6 11.2 62 1021.3 10.7 E 16.8 0.0 0.0
18:14 18.6 11.2 62 1021.2 12.1 E 16.8 0.0 0.0
18:15 18.5 11.1 62 1021.2 15.9 E 16.8 0.0 0.0
18:16 18.5 11.1 62 1021.2 12.1 NE 15.9 0.0 0.0
18:17 18.5 11.1 62 1021.2 13.6 NE 15.9 0.0 0.0
18:18 18.4 11.0 62 1021.2 9.2 E 15.9 0.0 0.0
18:19 18.4 11.2 63 1021.1 14.5 E 15.9 0.0 0.0
18:20 18.4 11.2 63 1021.1 14.5 NE 15.9 0.0 0.0
18:21 18.3 11.1 63 1021.1 17.4 E 17.4 0.0 0.0
18:22 18.3 11.1 63 1021.3 17.4 S 17.4 0.0 0.0
18:23 18.2 11.0 63 1021.2 9.8 E 17.4 0.0 0.0
18:25 18.2 11.0 63 1021.3 13.6 E 17.4 0.0 0.0
18:26 18.2 11.0 63 1021.1 14.5 E 17.4 0.0 0.0
18:27 18.2 11.0 63 1021.2 14.5 NE 17.4 0.0 0.0
18:28 18.2 11.0 63 1021.1 9.8 ENE 17.4 0.0 0.0
18:29 18.2 11.0 63 1021.3 9.8 N 17.4 0.0 0.0
18:30 18.1 11.0 63 1021.2 7.6 E 17.4 0.0 0.0
18:31 18.1 11.0 63 1021.2 13.0 E 17.4 0.0 0.0
18:32 18.1 11.0 63 1021.2 13.0 E 17.4 0.0 0.0
18:33 18.1 11.0 63 1021.1 11.4 NE 16.8 0.0 0.0
18:34 18.1 11.0 63 1021.0 10.7 ENE 16.8 0.0 0.0
18:35 18.1 11.0 63 1021.2 11.4 NE 15.2 0.0 0.0
18:36 18.1 11.0 63 1021.1 11.4 E 15.2 0.0 0.0
18:37 18.1 11.0 63 1021.1 8.3 N 15.2 0.0 0.0
18:39 18.1 11.0 63 1021.3 10.7 NE 15.2 0.0 0.0
18:40 18.1 11.0 63 1021.0 10.7 NE 13.6 0.0 0.0
18:41 18.1 11.0 63 1021.2 12.1 E 13.6 0.0 0.0
18:42 18.1 11.0 63 1021.0 9.8 N 13.6 0.0 0.0
18:43 18.1 11.0 63 1021.2 13.6 E 13.6 0.0 0.0
18:44 18.1 11.0 63 1021.2 13.6 NW 13.6 0.0 0.0
18:45 18.0 10.9 63 1021.2 13.6 NE 13.6 0.0 0.0
18:46 18.0 10.9 63 1021.2 11.4 NE 13.6 0.0 0.0
18:47 18.0 10.9 63 1021.3 7.6 E 13.6 0.0 0.0
18:48 18.0 10.9 63 1021.0 12.1 N 13.6 0.0 0.0
18:49 18.0 10.9 63 1021.0 7.6 NE 13.6 0.0 0.0
18:50 18.0 10.9 63 1021.2 15.2 NE 15.2 0.0 0.0
18:51 17.9 10.8 63 1021.1 13.0 E 15.2 0.0 0.0
18:53 17.9 10.8 63 1021.1 9.2 E 15.2 0.0 0.0
18:54 17.9 10.8 63 1021.1 13.0 SE 15.2 0.0 0.0
18:55 17.8 10.7 63 1021.0 13.6 NE 15.2 0.0 0.0
18:56 17.8 10.7 63 1021.0 13.6 NE 15.2 0.0 0.0
18:57 17.8 10.7 63 1021.1 12.1 N 15.2 0.0 0.0
18:58 17.7 10.6 63 1021.0 11.4 E 15.2 0.0 0.0
18:59 17.7 10.6 63 1021.1 10.7 E 15.2 0.0 0.0
19:00 17.7 10.6 63 1021.1 13.6 E 15.2 0.0 0.0
19:01 17.7 10.6 63 1021.2 13.6 E 15.2 0.0 0.0
19:02 17.6 10.5 63 1021.2 10.7 S 13.6 0.0 0.0
19:03 17.6 10.5 63 1021.2 10.7 E 13.6 0.0 0.0
19:04 17.6 10.7 64 1021.1 8.3 SW 13.6 0.0 0.0
19:05 17.5 10.6 64 1021.0 9.8 NE 13.6 0.0 0.0
19:06 17.5 10.6 64 1021.2 8.3 NE 13.6 0.0 0.0
19:08 17.5 10.6 64 1021.2 11.4 S 13.6 0.0 0.0
19:09 17.5 10.6 64 1021.0 11.4 NE 13.6 0.0 0.0
19:10 17.4 11.4 68 1021.2 10.7 E 13.6 0.0 0.0
19:11 17.4 11.4 68 1021.2 9.8 E 13.6 0.0 0.0
19:12 17.4 11.4 68 1021.1 14.5 E 14.5 0.0 0.0
19:13 17.4 11.4 68 1020.9 9.8 E 14.5 0.0 0.0
19:14 17.3 11.3 68 1021.1 8.3 NE 14.5 0.0 0.0
19:15 17.3 11.3 68 1021.1 13.0 NE 14.5 0.0 0.0
19:16 17.3 11.6 69 1020.9 13.0 SW 14.5 0.0 0.0
19:17 17.2 11.5 69 1021.1 12.1 ESE 14.5 0.0 0.0
19:18 17.2 11.5 69 1021.1 12.1 NE 14.5 0.0 0.0
19:19 17.1 11.4 69 1021.2 10.7 NE 14.5 0.0 0.0
19:20 17.1 11.4 69 1021.2 10.7 NE 14.5 0.0 0.0
19:21 17.1 11.4 69 1021.0 10.7 NE 14.5 0.0 0.0
19:22 17.0 11.5 70 1021.2 10.7 NE 13.0 0.0 0.0
19:23 17.0 11.5 70 1021.1 13.6 E 13.6 0.0 0.0
19:24 17.0 11.5 70 1021.2 14.5 NE 14.5 0.0 0.0
19:25 17.0 11.5 70 1021.1 9.2 NE 14.5 0.0 0.0
19:26 16.9 11.4 70 1021.3 13.0 E 14.5 0.0 0.0
19:27 16.8 11.3 70 1021.0 11.4 NE 14.5 0.0 0.0
19:28 16.8 11.3 70 1021.1 11.4 W 14.5 0.0 0.0
19:29 16.8 11.3 70 1021.1 15.9 W 15.9 0.0 0.0
19:31 16.8 11.3 70 1021.1 11.4 NE 15.9 0.0 0.0
19:32 16.7 11.2 70 1021.2 12.1 NE 15.9 0.0 0.0
19:33 16.7 11.2 70 1021.2 8.3 NE 15.9 0.0 0.0
19:34 16.7 11.2 70 1021.1 13.0 NE 15.9 0.0 0.0
19:35 16.7 11.2 70 1021.1 13.0 NE 15.9 0.0 0.0
19:36 16.7 11.4 71 1021.2 10.7 W 15.9 0.0 0.0
19:37 16.7 11.4 71 1021.2 11.4 NNE 15.9 0.0 0.0
19:38 16.6 11.3 71 1021.1 9.8 NE 15.9 0.0 0.0
19:39 16.6 11.3 71 1021.1 10.7 E 15.9 0.0 0.0
19:40 16.6 11.3 71 1021.3 8.3 E 15.9 0.0 0.0
19:41 16.6 11.3 71 1021.3 8.3 NE 13.0 0.0 0.0
19:42 16.5 11.2 71 1021.3 13.6 E 13.6 0.0 0.0
19:43 16.5 11.2 71 1020.9 9.8 NE 13.6 0.0 0.0
19:45 16.5 11.2 71 1021.0 18.3 E 18.3 0.0 0.0
19:46 16.5 11.2 71 1020.9 13.6 NE 18.3 0.0 0.0
19:47 16.5 11.2 71 1021.2 9.2 NE 18.3 0.0 0.0
19:48 16.5 11.2 71 1021.2 9.2 NE 18.3 0.0 0.0
19:49 16.5 11.2 71 1021.2 9.2 NE 18.3 0.0 0.0
19:50 16.5 11.2 71 1020.9 10.7 NE 18.3 0.0 0.0
19:51 16.5 11.2 71 1021.1 10.7 NE 18.3 0.0 0.0
19:52 16.5 11.2 71 1021.2 10.7 NE 18.3 0.0 0.0
19:53 16.5 11.2 71 1021.0 10.7 NE 18.3 0.0 0.0
19:54 16.4 11.1 71 1021.1 8.3 W 18.3 0.0 0.0
19:55 16.4 11.1 71 1021.2 18.3 NE 18.3 0.0 0.0
19:56 16.4 11.1 71 1021.1 15.9 E 18.3 0.0 0.0
19:57 16.4 11.1 71 1021.4 15.9 E 18.3 0.0 0.0
19:59 16.4 11.3 72 1021.1 9.8 SE 18.3 0.0 0.0
20:00 16.4 11.3 72 1021.1 9.8 SE 18.3 0.0 0.0
20:01 16.4 11.3 72 1021.0 9.8 SE 18.3 0.0 0.0
20:02 16.4 11.3 72 1021.1 9.8 SE 18.3 0.0 0.0
20:03 16.4 11.3 72 1021.4 9.8 SE 18.3 0.0 0.0
20:04 16.4 11.3 72 1021.3 9.8 SE 18.3 0.0 0.0
20:05 16.4 11.3 72 1021.3 9.8 SE 18.3 0.0 0.0
20:06 16.4 11.3 72 1021.2 9.8 SE 15.9 0.0 0.0
20:07 16.4 11.3 72 1021.3 9.8 NE 15.9 0.0 0.0
20:08 16.4 11.3 72 1021.2 14.5 NE 15.2 0.0 0.0
20:09 16.4 11.3 72 1021.2 12.1 E 15.2 0.0 0.0
20:10 16.3 11.3 72 1021.3 15.9 NE 15.9 0.0 0.0
20:11 16.3 11.3 72 1021.5 11.4 NE 15.9 0.0 0.0
20:12 16.3 11.3 72 1021.5 12.1 SE 15.9 0.0 0.0
20:13 16.3 11.3 72 1021.3 12.1 W 15.9 0.0 0.0
20:15 16.3 11.3 72 1021.3 11.4 SE 15.9 0.0 0.0
20:16 16.3 11.3 72 1021.4 13.6 NE 15.9 0.0 0.0
20:17 16.3 11.3 72 1021.3 13.0 N 15.9 0.0 0.0
20:18 16.3 11.3 72 1021.3 11.4 W 15.9 0.0 0.0
20:19 16.3 11.3 72 1021.4 9.2 NE 15.9 0.0 0.0
20:20 16.3 11.3 72 1021.3 16.8 NE 16.8 0.0 0.0
20:21 16.3 11.3 72 1021.5 9.2 N 16.8 0.0 0.0
20:22 16.3 11.3 72 1021.3 9.8 E 16.8 0.0 0.0
20:23 16.3 11.3 72 1021.4 10.7 SW 16.8 0.0 0.0
20:24 16.3 11.3 72 1021.1 10.7 SW 16.8 0.0 0.0
20:25 16.3 11.3 72 1021.3 9.8 NE 16.8 0.0 0.0
20:26 16.3 11.3 72 1021.3 8.3 E 16.8 0.0 0.0
20:27 16.2 11.2 72 1021.4 9.8 E 16.8 0.0 0.0
20:28 16.2 11.2 72 1021.4 8.3 E 16.8 0.0 0.0
20:29 16.2 11.2 72 1021.2 11.4 E 16.8 0.0 0.0
20:31 16.2 11.4 73 1021.2 12.1 NE 12.1 0.0 0.0
20:32 16.2 11.4 73 1021.4 13.6 NE 13.6 0.0 0.0
20:33 16.1 11.3 73 1021.4 13.0 S 13.6 0.0 0.0
20:34 16.1 11.3 73 1021.4 13.0 E 13.6 0.0 0.0
20:35 16.1 11.3 73 1021.4 9.8 E 13.6 0.0 0.0
20:36 16.1 11.3 73 1021.3 14.5 E 14.5 0.0 0.0
20:37 16.1 11.3 73 1021.5 14.5 E 14.5 0.0 0.0
20:38 16.1 11.3 73 1021.3 8.3 NE 14.5 0.0 0.0
20:39 16.1 11.3 73 1021.5 11.4 NE 14.5 0.0 0.0
20:40 16.1 11.3 73 1021.4 11.4 NE 14.5 0.0 0.0
20:41 16.1 11.5 74 1021.4 8.3 E 14.5 0.0 0.0
20:42 16.1 11.5 74 1021.5 9.8 NE 14.5 0.0 0.0
20:43 16.1 11.5 74 1021.3 11.4 E 14.5 0.0 0.0
20:44 16.1 11.5 74 1021.4 11.4 N 14.5 0.0 0.0
20:45 16.1 11.5 74 1021.3 10.7 E 14.5 0.0 0.0
20:46 16.1 11.5 74 1021.6 10.7 NE 14.5 0.0 0.0
20:48 16.0 11.4 74 1021.4 9.8 NE 14.5 0.0 0.0
20:50 16.0 11.4 74 1021.6 9.8 W 14.5 0.0 0.0
20:51 16.0 11.6 75 1021.6 6.9 E 14.5 0.0 0.0
20:52 16.0 11.6 75 1021.4 8.3 S 14.5 0.0 0.0
20:53 16.0 11.6 75 1021.4 8.3 S 14.5 0.0 0.0
20:54 16.0 11.6 75 1021.6 5.4 E 14.5 0.0 0.0
20:55 16.0 11.6 75 1021.6 7.6 N 14.5 0.0 0.0
20:56 16.0 11.6 75 1021.6 10.7 E 14.5 0.0 0.0
20:57 16.0 11.6 75 1021.7 10.7 E 14.5 0.0 0.0
20:58 16.0 11.6 75 1021.9 8.3 W 14.5 0.0 0.0
20:59 16.0 11.6 75 1021.5 8.3 NW 13.6 0.0 0.0
21:00 16.0 11.6 75 1021.5 6.9 NW 13.6 0.0 0.0
21:01 16.0 11.6 75 1021.5 6.9 NW 13.6 0.0 0.0
21:02 16.0 11.6 75 1021.6 6.9 NW 13.6 0.0 0.0
21:03 16.0 11.6 75 1021.7 6.9 NW 13.6 0.0 0.0
21:04 16.0 11.6 75 1021.6 6.9 NW 13.6 0.0 0.0
21:05 16.0 11.6 75 1021.5 6.9 NW 13.6 0.0 0.0
21:06 15.9 11.7 76 1021.5 6.9 N 13.6 0.0 0.0
21:07 15.9 11.7 76 1021.6 7.6 NE 13.6 0.0 0.0
21:09 15.9 11.7 76 1021.4 9.8 NE 9.8 0.0 0.0
21:10 15.9 11.7 76 1021.5 12.1 E 12.1 0.0 0.0
21:11 15.9 11.7 76 1021.7 10.7 E 13.6 0.0 0.0
21:12 15.9 11.7 76 1021.4 10.7 E 13.6 0.0 0.0
21:13 15.9 11.7 76 1021.4 10.7 E 13.6 0.0 0.0
21:14 15.9 11.7 76 1021.4 13.0 E 13.6 0.0 0.0
21:15 15.8 11.6 76 1021.5 8.3 NE 13.6 0.0 0.0
21:16 15.8 11.6 76 1021.4 6.9 NE 13.6 0.0 0.0
21:17 15.8 11.6 76 1021.5 9.2 E 13.6 0.0 0.0
21:18 15.8 11.6 76 1021.4 9.2 E 13.6 0.0 0.0
21:19 15.8 11.6 76 1021.4 13.6 NE 13.6 0.0 0.0
21:21 15.8 11.6 76 1021.6 13.6 N 13.6 0.0 0.0
21:22 15.8 11.6 76 1021.4 13.6 N 13.6 0.0 0.0
21:23 15.8 11.6 76 1021.3 12.1 NE 13.6 0.0 0.0
21:24 15.8 11.6 76 1021.3 12.1 NE 13.6 0.0 0.0
21:25 15.8 11.6 76 1021.5 7.6 E 13.6 0.0 0.0
21:26 15.8 11.6 76 1021.6 10.7 SE 13.6 0.0 0.0
21:27 15.8 11.6 76 1021.6 11.4 E 13.6 0.0 0.0
21:28 15.8 11.6 76 1021.4 7.6 ENE 13.6 0.0 0.0
21:29 15.8 11.6 76 1021.3 9.2 E 13.6 0.0 0.0
21:30 15.8 11.6 76 1021.3 6.0 NE 13.6 0.0 0.0
21:31 15.7 11.5 76 1021.4 6.9 SE 13.6 0.0 0.0
21:32 15.7 11.5 76 1021.5 10.7 SW 13.6 0.0 0.0
21:33 15.7 11.5 76 1021.4 9.8 E 12.1 0.0 0.0
21:34 15.7 11.5 76 1021.6 9.2 E 11.4 0.0 0.0
21:35 15.7 11.5 76 1021.6 9.2 E 11.4 0.0 0.0
21:36 15.7 11.5 76 1021.4 6.9 NE 11.4 0.0 0.0
21:37 15.7 11.5 76 1021.7 6.9 E 10.7 0.0 0.0
21:39 15.7 11.5 76 1021.5 5.4 NW 10.7 0.0 0.0
21:40 15.7 11.5 76 1021.4 13.6 ENE 13.6 0.0 0.0
21:41 15.7 11.5 76 1021.5 13.6 E 13.6 0.0 0.0
21:42 15.7 11.5 76 1021.6 8.3 N 13.6 0.0 0.0
21:43 15.7 11.5 76 1021.5 12.1 W 13.6 0.0 0.0
21:44 15.7 11.5 76 1021.4 11.4 NE 13.6 0.0 0.0
21:45 15.7 11.5 76 1021.4 13.6 E 13.6 0.0 0.0
21:46 15.7 11.5 76 1021.5 13.0 ENE 13.6 0.0 0.0
21:47 15.7 11.5 76 1021.4 13.6 E 13.6 0.0 0.0
21:48 15.7 11.5 76 1021.4 11.4 E 13.6 0.0 0.0
21:49 15.7 11.5 76 1021.3 12.1 NE 13.6 0.0 0.0
21:50 15.7 11.5 76 1021.5 13.6 W 13.6 0.0 0.0
21:51 15.7 11.5 76 1021.4 9.8 E 13.6 0.0 0.0
21:52 15.7 11.5 76 1021.3 8.3 N 13.6 0.0 0.0
21:54 15.7 11.5 76 1021.4 8.3 NE 13.6 0.0 0.0
21:55 15.7 11.5 76 1021.6 8.3 NE 13.6 0.0 0.0
21:56 15.7 11.5 76 1021.4 9.8 E 13.6 0.0 0.0
21:57 15.7 11.5 76 1021.4 9.8 E 13.6 0.0 0.0
21:58 15.7 11.5 76 1021.2 12.1 ESE 13.6 0.0 0.0
21:59 15.7 11.5 76 1021.4 15.9 E 15.9 0.0 0.0
22:00 15.7 11.5 76 1021.4 10.7 E 15.9 0.0 0.0
22:01 15.7 11.5 76 1021.3 10.7 E 15.9 0.0 0.0
22:02 15.7 11.5 76 1021.3 11.4 E 15.9 0.0 0.0
22:03 15.7 11.5 76 1021.5 11.4 E 15.9 0.0 0.0
22:04 15.7 11.5 76 1021.3 8.3 E 15.9 0.0 0.0
22:05 15.7 11.5 76 1021.6 9.2 ESE 15.9 0.0 0.0
22:06 15.7 11.5 76 1021.5 9.8 W 15.9 0.0 0.0
22:07 15.7 11.5 76 1021.2 6.9 NE 15.9 0.0 0.0
22:09 15.7 11.5 76 1021.5 11.4 NE 12.1 0.0 0.0
22:10 15.7 11.5 76 1021.2 8.3 NE 12.1 0.0 0.0
22:11 15.7 11.5 76 1021.4 6.9 E 12.1 0.0 0.0
22:12 15.7 11.5 76 1021.4 6.9 E 11.4 0.0 0.0
22:13 15.7 11.5 76 1021.2 7.6 NE 11.4 0.0 0.0
22:14 15.7 11.5 76 1021.3 10.7 E 11.4 0.0 0.0
22:15 15.7 11.5 76 1021.3 10.7 E 11.4 0.0 0.0
22:16 15.7 11.5 76 1021.2 13.0 E 13.0 0.0 0.0
22:17 15.7 11.5 76 1021.4 9.2 NE 13.0 0.0 0.0
22:18 15.6 11.4 76 1021.2 3.8 NW 13.0 0.0 0.0
22:19 15.6 11.4 76 1021.3 5.4 S 13.0 0.0 0.0
22:20 15.6 11.4 76 1021.5 4.5 N 13.0 0.0 0.0
22:21 15.6 11.4 76 1021.1 6.9 NE 13.0 0.0 0.0
22:22 15.6 11.4 76 1021.0 6.9 E 13.0 0.0 0.0
22:23 15.6 11.4 76 1021.2 5.4 E 13.0 0.0 0.0
22:24 15.6 11.4 76 1021.3 6.9 NE 13.0 0.0 0.0
22:26 15.6 11.4 76 1021.2 6.9 NE 9.2 0.0 0.0
22:27 15.6 11.4 76 1021.2 11.4 NE 11.4 0.0 0.0
22:28 15.6 11.4 76 1021.2 9.8 E 11.4 0.0 0.0
22:29 15.6 11.4 76 1021.4 8.3 E 11.4 0.0 0.0
22:30 15.6 11.4 76 1021.3 5.4 E 11.4 0.0 0.0
22:31 15.6 11.4 76 1021.3 9.2 E 11.4 0.0 0.0
22:32 15.6 11.4 76 1021.1 9.2 NE 11.4 0.0 0.0
22:33 15.6 11.4 76 1021.1 8.3 W 11.4 0.0 0.0
22:34 15.5 11.3 76 1021.1 12.1 SE 12.1 0.0 0.0
22:35 15.5 11.3 76 1021.3 12.1 NE 12.1 0.0 0.0
22:36 15.5 11.3 76 1021.3 5.4 E 12.1 0.0 0.0
22:37 15.5 11.3 76 1021.1 5.4 NE 12.1 0.0 0.0
22:38 15.5 11.3 76 1021.2 9.8 NE 12.1 0.0 0.0
22:39 15.5 11.3 76 1021.5 9.8 NE 12.1 0.0 0.0
22:40 15.5 11.3 76 1021.2 9.2 NW 12.1 0.0 0.0
22:41 15.5 11.3 76 1021.1 3.1 W 12.1 0.0 0.0
22:42 15.5 11.3 76 1021.3 7.6 E 12.1 0.0 0.0
22:43 15.5 11.3 76 1021.3 6.0 E 12.1 0.0 0.0
22:44 15.5 11.3 76 1021.2 11.4 E 12.1 0.0 0.0
22:45 15.5 11.3 76 1021.3 11.4 ENE 11.4 0.0 0.0
22:47 15.5 11.3 76 1021.1 10.7 NE 11.4 0.0 0.0
22:48 15.5 11.3 76 1021.0 9.8 E 11.4 0.0 0.0
22:49 15.5 11.3 76 1021.1 8.3 NE 11.4 0.0 0.0
22:50 15.5 11.3 76 1021.3 6.0 E 11.4 0.0 0.0
22:51 15.5 11.3 76 1021.1 4.5 NE 11.4 0.0 0.0
22:52 15.5 11.3 76 1021.2 12.1 SE 12.1 0.0 0.0
22:53 15.5 11.3 76 1021.2 12.1 E 12.1 0.0 0.0
22:54 15.5 11.3 76 1021.2 13.6 E 13.6 0.0 0.0
22:55 15.5 11.5 77 1021.3 12.1 NE 13.6 0.0 0.0
22:56 15.5 11.5 77 1021.3 12.1 NE 13.6 0.0 0.0
22:57 15.5 11.5 77 1021.2 8.3 E 13.6 0.0 0.0
22:58 15.5 11.5 77 1021.0 6.9 NE 13.6 0.0 0.0
22:59 15.5 11.5 77 1021.1 10.7 E 13.6 0.0 0.0
23:00 15.5 11.5 77 1021.1 10.7 E 13.6 0.0 0.0
23:01 15.5 11.5 77 1021.4 10.7 E 13.6 0.0 0.0
23:02 15.5 11.5 77 1021.2 10.7 E 13.6 0.0 0.0
23:04 15.5 11.5 77 1021.2 10.7 E 13.6 0.0 0.0
23:05 15.5 11.5 77 1021.2 10.7 E 12.1 0.0 0.0
23:06 15.5 11.5 77 1021.2 10.7 E 12.1 0.0 0.0
23:07 15.5 11.5 77 1021.2 5.4 E 10.7 0.0 0.0
23:08 15.5 11.5 77 1021.1 6.9 NE 10.7 0.0 0.0
23:09 15.5 11.5 77 1021.2 6.9 E 10.7 0.0 0.0
23:10 15.5 11.5 77 1021.2 7.6 SE 10.7 0.0 0.0
23:11 15.5 11.5 77 1021.1 6.9 NE 10.7 0.0 0.0
23:12 15.5 11.5 77 1021.0 7.6 NW 10.7 0.0 0.0
23:13 15.5 11.5 77 1021.3 12.1 NW 12.1 0.0 0.0
23:14 15.5 11.5 77 1021.3 9.2 E 12.1 0.0 0.0
23:16 15.5 11.5 77 1021.0 9.2 E 12.1 0.0 0.0
23:17 15.5 11.5 77 1021.1 10.7 E 12.1 0.0 0.0
23:18 15.5 11.7 78 1021.2 7.6 E 12.1 0.0 0.0
23:19 15.5 11.7 78 1021.1 11.4 S 12.1 0.0 0.0
23:21 15.5 11.7 78 1021.4 6.9 NE 12.1 0.0 0.0
23:22 15.5 11.7 78 1021.3 8.3 E 12.1 0.0 0.0
23:23 15.5 11.7 78 1021.2 13.0 E 13.0 0.0 0.0
23:24 15.5 11.7 78 1021.2 13.0 E 13.0 0.0 0.0
23:25 15.5 11.7 78 1021.2 9.2 E 13.0 0.0 0.0
23:26 15.5 11.7 78 1021.2 6.0 NE 13.0 0.0 0.0
23:27 15.5 11.7 78 1021.3 9.2 E 13.0 0.0 0.0
23:28 15.5 11.7 78 1021.3 5.4 E 13.0 0.0 0.0
23:29 15.5 11.7 78 1021.2 8.3 E 13.0 0.0 0.0
23:30 15.5 11.7 78 1021.1 6.9 ENE 15.2 0.0 0.0
23:31 15.5 11.7 78 1021.1 7.6 W 15.2 0.0 0.0
23:32 15.4 11.6 78 1021.4 8.3 NE 15.2 0.0 0.0
23:33 15.4 11.6 78 1021.3 8.3 E 15.2 0.0 0.0
23:35 15.4 11.6 78 1021.2 9.2 NW 15.2 0.0 0.0
23:36 15.4 11.8 79 1021.3 3.8 SE 15.2 0.0 0.0
23:37 15.4 11.8 79 1021.3 8.3 NW 15.2 0.0 0.0
23:38 15.4 11.8 79 1021.1 7.6 SE 15.2 0.0 0.0
23:39 15.4 11.8 79 1021.1 9.2 E 15.2 0.0 0.0
23:40 15.4 11.8 79 1021.1 9.2 N 9.2 0.0 0.0
23:41 15.4 11.8 79 1020.8 7.6 E 9.2 0.0 0.0
23:42 15.4 11.8 79 1021.1 10.7 E 10.7 0.0 0.0
23:43 15.4 11.8 79 1021.3 6.9 E 10.7 0.0 0.0
23:44 15.4 11.8 79 1021.0 3.8 E 10.7 0.0 0.0
23:45 15.4 11.8 79 1021.2 8.3 NE 10.7 0.0 0.0
23:46 15.4 11.8 79 1021.1 10.7 E 10.7 0.0 0.0
23:47 15.4 11.8 79 1021.0 11.4 NE 11.4 0.0 0.0
23:49 15.4 11.8 79 1021.0 8.3 NE 11.4 0.0 0.0
23:50 15.4 11.8 79 1021.0 6.0 W 11.4 0.0 0.0
23:51 15.4 11.8 79 1021.1 9.2 E 11.4 0.0 0.0
23:52 15.4 11.8 79 1021.1 9.2 E 11.4 0.0 0.0
23:53 15.4 11.8 79 1021.0 9.2 E 11.4 0.0 0.0
23:54 15.4 11.8 79 1021.0 7.6 NE 11.4 0.0 0.0
23:55 15.4 11.8 79 1020.9 9.8 NW 11.4 0.0 0.0
23:56 15.4 12.0 80 1021.1 6.9 NE 11.4 0.0 0.0
23:57 15.4 12.0 80 1021.2 9.8 E 11.4 0.0 0.0
23:58 15.4 12.0 80 1021.1 6.0 N 11.4 0.0 0.0
23:59 15.4 12.0 80 1021.2 2.2 N 9.8 0.0 0.0

 

 

UK - WEATHER STATION TOPSITES - UK World Weather Websites

Copyright © Carnkie Weather 2009 - 2020.